| time (UTC) | temp F | wind direction | speed MPH | gust MPH | rain 1hr in | rain 24hr in | rain mn in | humidity % | barometer mb |
| 20260505235105 | 83 | 154 | 8.0 | 12.0 | 0.00 | 0.00 | 0.00 | 68 | 1004.5 |
| 20260505234806 | 83 | 152 | 8.0 | 15.0 | 0.00 | 0.00 | 0.00 | 68 | 1004.6 |
| 20260505234705 | 83 | 152 | 8.0 | 15.0 | 0.00 | 0.00 | 0.00 | 68 | 1004.6 |
| 20260505234605 | 83 | 156 | 8.0 | 15.0 | 0.00 | 0.00 | 0.00 | 68 | 1004.5 |
| 20260505234505 | 83 | 159 | 8.0 | 15.0 | 0.00 | 0.00 | 0.00 | 68 | 1004.5 |
| 20260505234405 | 83 | 160 | 8.0 | 15.0 | 0.00 | 0.00 | 0.00 | 68 | 1004.5 |
| 20260505234305 | 83 | 160 | 8.0 | 15.0 | 0.00 | 0.00 | 0.00 | 68 | 1004.5 |
| 20260505234205 | 83 | 160 | 8.0 | 15.0 | 0.00 | 0.00 | 0.00 | 68 | 1004.5 |
| 20260505234105 | 83 | 160 | 8.0 | 15.0 | 0.00 | 0.00 | 0.00 | 68 | 1004.5 |
| 20260505234005 | 83 | 160 | 8.0 | 13.0 | 0.00 | 0.00 | 0.00 | 68 | 1004.5 |
| 20260505233906 | 83 | 159 | 8.0 | 13.0 | 0.00 | 0.00 | 0.00 | 68 | 1004.5 |
| 20260505233806 | 84 | 159 | 8.0 | 13.0 | 0.00 | 0.00 | 0.00 | 67 | 1004.5 |
| 20260505233705 | 84 | 161 | 7.0 | 13.0 | 0.00 | 0.00 | 0.00 | 67 | 1004.5 |
| 20260505233505 | 84 | 158 | 7.0 | 13.0 | 0.00 | 0.00 | 0.00 | 68 | 1004.5 |
| 20260505233406 | 84 | 157 | 7.0 | 13.0 | 0.00 | 0.00 | 0.00 | 67 | 1004.5 |
| 20260505233305 | 84 | 157 | 7.0 | 13.0 | 0.00 | 0.00 | 0.00 | 68 | 1004.5 |
| 20260505233206 | 84 | 155 | 6.0 | 12.0 | 0.00 | 0.00 | 0.00 | 67 | 1004.5 |
| 20260505233105 | 84 | 155 | 7.0 | 12.0 | 0.00 | 0.00 | 0.00 | 67 | 1004.5 |
| 20260505233006 | 84 | 158 | 7.0 | 12.0 | 0.00 | 0.00 | 0.00 | 67 | 1004.4 |
| 20260505232806 | 84 | 159 | 7.0 | 13.0 | 0.00 | 0.00 | 0.00 | 67 | 1004.5 |
| 20260505232706 | 84 | 158 | 7.0 | 13.0 | 0.00 | 0.00 | 0.00 | 67 | 1004.5 |
| 20260505232606 | 84 | 157 | 7.0 | 13.0 | 0.00 | 0.00 | 0.00 | 67 | 1004.5 |
| 20260505232505 | 84 | 159 | 8.0 | 15.0 | 0.00 | 0.00 | 0.00 | 67 | 1004.5 |
| 20260505232406 | 84 | 159 | 8.0 | 15.0 | 0.00 | 0.00 | 0.00 | 67 | 1004.5 |
| 20260505232305 | 84 | 159 | 8.0 | 16.0 | 0.00 | 0.00 | 0.00 | 67 | 1004.5 |
| 20260505232205 | 84 | 158 | 8.0 | 16.0 | 0.00 | 0.00 | 0.00 | 67 | 1004.5 |
| 20260505232105 | 84 | 158 | 8.0 | 16.0 | 0.00 | 0.00 | 0.00 | 66 | 1004.4 |
| 20260505232005 | 84 | 156 | 8.0 | 16.0 | 0.00 | 0.00 | 0.00 | 66 | 1004.4 |
| 20260505231605 | 84 | 156 | 8.0 | 16.0 | 0.00 | 0.00 | 0.00 | 66 | 1004.3 |
| 20260505231506 | 84 | 156 | 8.0 | 16.0 | 0.00 | 0.00 | 0.00 | 67 | 1004.2 |
| 20260505231405 | 84 | 157 | 7.0 | 16.0 | 0.00 | 0.00 | 0.00 | 67 | 1004.2 |
| 20260505231305 | 84 | 159 | 7.0 | 14.0 | 0.00 | 0.00 | 0.00 | 67 | 1004.2 |
| 20260505231205 | 84 | 162 | 8.0 | 13.0 | 0.00 | 0.00 | 0.00 | 67 | 1004.2 |
| 20260505231105 | 84 | 164 | 8.0 | 13.0 | 0.00 | 0.00 | 0.00 | 67 | 1004.2 |
| 20260505231005 | 84 | 165 | 8.0 | 12.0 | 0.00 | 0.00 | 0.00 | 67 | 1004.2 |
| 20260505230905 | 84 | 166 | 8.0 | 12.0 | 0.00 | 0.00 | 0.00 | 67 | 1004.2 |
| 20260505230805 | 84 | 165 | 8.0 | 13.0 | 0.00 | 0.00 | 0.00 | 67 | 1004.2 |
| 20260505230705 | 84 | 164 | 8.0 | 14.0 | 0.00 | 0.00 | 0.00 | 67 | 1004.2 |
| 20260505230605 | 84 | 163 | 8.0 | 14.0 | 0.00 | 0.00 | 0.00 | 67 | 1004.2 |
| 20260505230505 | 84 | 162 | 9.0 | 14.0 | 0.00 | 0.00 | 0.00 | 68 | 1004.2 |
| 20260505230406 | 84 | 161 | 9.0 | 14.0 | 0.00 | 0.00 | 0.00 | 67 | 1004.2 |
| 20260505230305 | 84 | 158 | 9.0 | 15.0 | 0.00 | 0.00 | 0.00 | 67 | 1004.2 |
| 20260505230006 | 84 | 153 | 8.0 | 15.0 | 0.00 | 0.00 | 0.00 | 67 | 1004.2 |
| 20260505225905 | 84 | 151 | 9.0 | 15.0 | 0.00 | 0.00 | 0.00 | 67 | 1004.1 |
| 20260505225805 | 84 | 150 | 9.0 | 16.0 | 0.00 | 0.00 | 0.00 | 67 | 1004.1 |
| 20260505225705 | 84 | 151 | 8.0 | 16.0 | 0.00 | 0.00 | 0.00 | 67 | 1004.1 |
| 20260505225606 | 84 | 150 | 9.0 | 16.0 | 0.00 | 0.00 | 0.00 | 66 | 1004.1 |
| 20260505225405 | 84 | 147 | 9.0 | 16.0 | 0.00 | 0.00 | 0.00 | 66 | 1004.1 |
| 20260505225306 | 85 | 147 | 9.0 | 16.0 | 0.00 | 0.00 | 0.00 | 66 | 1004.1 |
| 20260505225205 | 85 | 146 | 9.0 | 16.0 | 0.00 | 0.00 | 0.00 | 66 | 1004.1 |
| 20260505225105 | 85 | 146 | 9.0 | 16.0 | 0.00 | 0.00 | 0.00 | 65 | 1004.1 |
| 20260505225005 | 85 | 148 | 9.0 | 16.0 | 0.00 | 0.00 | 0.00 | 65 | 1004.1 |
| 20260505224905 | 85 | 149 | 9.0 | 16.0 | 0.00 | 0.00 | 0.00 | 65 | 1004.2 |
| 20260505224805 | 85 | 151 | 9.0 | 16.0 | 0.00 | 0.00 | 0.00 | 65 | 1004.2 |
| 20260505224705 | 85 | 153 | 9.0 | 16.0 | 0.00 | 0.00 | 0.00 | 65 | 1004.2 |
| 20260505224606 | 85 | 154 | 9.0 | 16.0 | 0.00 | 0.00 | 0.00 | 65 | 1004.2 |
| 20260505224505 | 85 | 156 | 8.0 | 16.0 | 0.00 | 0.00 | 0.00 | 65 | 1004.2 |
| 20260505224407 | 86 | 157 | 8.0 | 14.0 | 0.00 | 0.00 | 0.00 | 65 | 1004.2 |
| 20260505224305 | 86 | 158 | 8.0 | 14.0 | 0.00 | 0.00 | 0.00 | 65 | 1004.2 |
| 20260505224206 | 86 | 161 | 9.0 | 14.0 | 0.00 | 0.00 | 0.00 | 65 | 1004.3 |
| 20260505224105 | 86 | 163 | 9.0 | 14.0 | 0.00 | 0.00 | 0.00 | 65 | 1004.3 |
| 20260505224006 | 86 | 162 | 8.0 | 14.0 | 0.00 | 0.00 | 0.00 | 65 | 1004.3 |
| 20260505223906 | 86 | 161 | 8.0 | 14.0 | 0.00 | 0.00 | 0.00 | 65 | 1004.3 |
| 20260505223805 | 86 | 162 | 8.0 | 13.0 | 0.00 | 0.00 | 0.00 | 65 | 1004.3 |
| 20260505223605 | 86 | 160 | 8.0 | 16.0 | 0.00 | 0.00 | 0.00 | 65 | 1004.3 |
| 20260505223506 | 86 | 157 | 9.0 | 16.0 | 0.00 | 0.00 | 0.00 | 65 | 1004.3 |
| 20260505223405 | 86 | 158 | 9.0 | 16.0 | 0.00 | 0.00 | 0.00 | 65 | 1004.4 |
| 20260505223306 | 86 | 158 | 9.0 | 16.0 | 0.00 | 0.00 | 0.00 | 65 | 1004.3 |
| 20260505223206 | 86 | 157 | 8.0 | 16.0 | 0.00 | 0.00 | 0.00 | 65 | 1004.3 |
| 20260505223105 | 86 | 156 | 8.0 | 16.0 | 0.00 | 0.00 | 0.00 | 65 | 1004.3 |
| 20260505222705 | 86 | 162 | 8.0 | 16.0 | 0.00 | 0.00 | 0.00 | 65 | 1004.2 |
| 20260505222606 | 86 | 163 | 8.0 | 15.0 | 0.00 | 0.00 | 0.00 | 65 | 1004.2 |
| 20260505222505 | 86 | 167 | 8.0 | 15.0 | 0.00 | 0.00 | 0.00 | 64 | 1004.2 |
| 20260505222306 | 86 | 172 | 8.0 | 14.0 | 0.00 | 0.00 | 0.00 | 65 | 1004.1 |
| 20260505222205 | 86 | 174 | 8.0 | 14.0 | 0.00 | 0.00 | 0.00 | 64 | 1004.1 |
| 20260505222105 | 86 | 172 | 8.0 | 14.0 | 0.00 | 0.00 | 0.00 | 64 | 1004.2 |
| 20260505222005 | 86 | 170 | 8.0 | 14.0 | 0.00 | 0.00 | 0.00 | 63 | 1004.2 |
| 20260505221905 | 86 | 168 | 8.0 | 14.0 | 0.00 | 0.00 | 0.00 | 63 | 1004.1 |
| 20260505221805 | 86 | 169 | 8.0 | 14.0 | 0.00 | 0.00 | 0.00 | 63 | 1004.1 |
| 20260505221605 | 87 | 167 | 8.0 | 15.0 | 0.00 | 0.00 | 0.00 | 63 | 1004.1 |
| 20260505221506 | 87 | 166 | 7.0 | 15.0 | 0.00 | 0.00 | 0.00 | 63 | 1004.1 |
| 20260505221405 | 87 | 167 | 8.0 | 15.0 | 0.00 | 0.00 | 0.00 | 64 | 1004.0 |
| 20260505221305 | 87 | 168 | 8.0 | 15.0 | 0.00 | 0.00 | 0.00 | 64 | 1004.0 |
| 20260505221205 | 86 | 167 | 8.0 | 15.0 | 0.00 | 0.00 | 0.00 | 64 | 1004.0 |
| 20260505221105 | 86 | 169 | 8.0 | 15.0 | 0.00 | 0.00 | 0.00 | 64 | 1004.0 |
| 20260505221005 | 86 | 173 | 8.0 | 15.0 | 0.00 | 0.00 | 0.00 | 64 | 1004.0 |
| 20260505220905 | 86 | 177 | 8.0 | 15.0 | 0.00 | 0.00 | 0.00 | 63 | 1004.0 |
| 20260505220805 | 87 | 176 | 8.0 | 15.0 | 0.00 | 0.00 | 0.00 | 63 | 1004.0 |
| 20260505220705 | 87 | 181 | 8.0 | 15.0 | 0.00 | 0.00 | 0.00 | 62 | 1004.0 |
| 20260505220605 | 87 | 183 | 8.0 | 14.0 | 0.00 | 0.00 | 0.00 | 61 | 1004.0 |
| 20260505220506 | 87 | 184 | 8.0 | 14.0 | 0.00 | 0.00 | 0.00 | 60 | 1004.1 |
| 20260505220405 | 87 | 184 | 8.0 | 14.0 | 0.00 | 0.00 | 0.00 | 60 | 1004.1 |
| 20260505220306 | 87 | 184 | 8.0 | 13.0 | 0.00 | 0.00 | 0.00 | 60 | 1004.1 |
| 20260505220105 | 87 | 185 | 8.0 | 14.0 | 0.00 | 0.00 | 0.00 | 60 | 1004.0 |
| 20260505220006 | 87 | 185 | 8.0 | 14.0 | 0.00 | 0.00 | 0.00 | 60 | 1004.1 |
| 20260505215805 | 87 | 186 | 7.0 | 14.0 | 0.00 | 0.00 | 0.00 | 60 | 1004.1 |
| 20260505215605 | 87 | 187 | 7.0 | 14.0 | 0.00 | 0.00 | 0.00 | 60 | 1004.2 |
| 20260505215505 | 87 | 188 | 7.0 | 14.0 | 0.00 | 0.00 | 0.00 | 60 | 1004.2 |
| 20260505215406 | 87 | 190 | 7.0 | 14.0 | 0.00 | 0.00 | 0.00 | 60 | 1004.2 |
| 20260505215306 | 87 | 193 | 7.0 | 14.0 | 0.00 | 0.00 | 0.00 | 60 | 1004.2 |
| 20260505215005 | 87 | 192 | 8.0 | 12.0 | 0.00 | 0.00 | 0.00 | 59 | 1004.2 |
| 20260505214907 | 87 | 190 | 8.0 | 12.0 | 0.00 | 0.00 | 0.00 | 59 | 1004.2 |
| 20260505214806 | 88 | 189 | 8.0 | 12.0 | 0.00 | 0.00 | 0.00 | 59 | 1004.2 |
| 20260505214705 | 88 | 188 | 8.0 | 12.0 | 0.00 | 0.00 | 0.00 | 59 | 1004.3 |
| 20260505214606 | 88 | 188 | 8.0 | 13.0 | 0.00 | 0.00 | 0.00 | 60 | 1004.3 |
| 20260505214505 | 88 | 188 | 8.0 | 13.0 | 0.00 | 0.00 | 0.00 | 60 | 1004.4 |
| 20260505214405 | 88 | 185 | 8.0 | 13.0 | 0.00 | 0.00 | 0.00 | 60 | 1004.4 |
| 20260505214305 | 88 | 183 | 8.0 | 13.0 | 0.00 | 0.00 | 0.00 | 60 | 1004.5 |
| 20260505214205 | 88 | 179 | 8.0 | 13.0 | 0.00 | 0.00 | 0.00 | 60 | 1004.5 |
| 20260505214105 | 88 | 181 | 8.0 | 13.0 | 0.00 | 0.00 | 0.00 | 60 | 1004.5 |
| 20260505214006 | 88 | 177 | 8.0 | 13.0 | 0.00 | 0.00 | 0.00 | 59 | 1004.5 |
| 20260505213905 | 88 | 179 | 7.0 | 13.0 | 0.00 | 0.00 | 0.00 | 59 | 1004.5 |
| 20260505213805 | 88 | 179 | 7.0 | 13.0 | 0.00 | 0.00 | 0.00 | 59 | 1004.5 |
| 20260505213605 | 88 | 174 | 7.0 | 12.0 | 0.00 | 0.00 | 0.00 | 61 | 1004.5 |
| 20260505213505 | 88 | 171 | 7.0 | 12.0 | 0.00 | 0.00 | 0.00 | 60 | 1004.4 |
| 20260505213405 | 88 | 169 | 7.0 | 12.0 | 0.00 | 0.00 | 0.00 | 60 | 1004.5 |
| 20260505213305 | 88 | 169 | 7.0 | 12.0 | 0.00 | 0.00 | 0.00 | 60 | 1004.5 |
| 20260505213205 | 87 | 168 | 7.0 | 12.0 | 0.00 | 0.00 | 0.00 | 60 | 1004.5 |
| 20260505213005 | 87 | 166 | 7.0 | 12.0 | 0.00 | 0.00 | 0.00 | 60 | 1004.5 |
| 20260505212905 | 87 | 165 | 7.0 | 12.0 | 0.00 | 0.00 | 0.00 | 61 | 1004.5 |
| 20260505212805 | 87 | 168 | 7.0 | 12.0 | 0.00 | 0.00 | 0.00 | 60 | 1004.5 |
| 20260505212705 | 87 | 173 | 7.0 | 13.0 | 0.00 | 0.00 | 0.00 | 60 | 1004.5 |
| 20260505212606 | 87 | 176 | 8.0 | 13.0 | 0.00 | 0.00 | 0.00 | 60 | 1004.5 |
| 20260505212406 | 87 | 184 | 8.0 | 13.0 | 0.00 | 0.00 | 0.00 | 60 | 1004.5 |
| 20260505212306 | 87 | 188 | 8.0 | 17.0 | 0.00 | 0.00 | 0.00 | 60 | 1004.5 |
| 20260505212206 | 87 | 191 | 9.0 | 17.0 | 0.00 | 0.00 | 0.00 | 60 | 1004.5 |
| 20260505212105 | 87 | 192 | 9.0 | 17.0 | 0.00 | 0.00 | 0.00 | 60 | 1004.6 |
| 20260505212005 | 87 | 192 | 9.0 | 17.0 | 0.00 | 0.00 | 0.00 | 60 | 1004.6 |
| 20260505211905 | 87 | 187 | 9.0 | 17.0 | 0.00 | 0.00 | 0.00 | 61 | 1004.6 |
| 20260505211805 | 87 | 184 | 10.0 | 17.0 | 0.00 | 0.00 | 0.00 | 60 | 1004.7 |
| 20260505211705 | 87 | 179 | 10.0 | 17.0 | 0.00 | 0.00 | 0.00 | 60 | 1004.7 |
| 20260505211605 | 87 | 177 | 10.0 | 17.0 | 0.00 | 0.00 | 0.00 | 61 | 1004.7 |
| 20260505211405 | 87 | 176 | 9.0 | 17.0 | 0.00 | 0.00 | 0.00 | 59 | 1004.6 |
| 20260505211307 | 87 | 173 | 9.0 | 17.0 | 0.00 | 0.00 | 0.00 | 60 | 1004.7 |
| 20260505211205 | 87 | 172 | 8.0 | 17.0 | 0.00 | 0.00 | 0.00 | 61 | 1004.7 |
| 20260505211105 | 87 | 171 | 9.0 | 17.0 | 0.00 | 0.00 | 0.00 | 61 | 1004.7 |
| 20260505211005 | 87 | 174 | 8.0 | 17.0 | 0.00 | 0.00 | 0.00 | 60 | 1004.7 |
| 20260505210905 | 87 | 178 | 8.0 | 17.0 | 0.00 | 0.00 | 0.00 | 59 | 1004.6 |
| 20260505210805 | 87 | 181 | 7.0 | 17.0 | 0.00 | 0.00 | 0.00 | 59 | 1004.7 |
| 20260505210605 | 88 | 184 | 7.0 | 15.0 | 0.00 | 0.00 | 0.00 | 59 | 1004.8 |
| 20260505210305 | 88 | 179 | 8.0 | 15.0 | 0.00 | 0.00 | 0.00 | 61 | 1004.8 |
| 20260505210205 | 88 | 178 | 8.0 | 16.0 | 0.00 | 0.00 | 0.00 | 60 | 1004.8 |
| 20260505210106 | 88 | 179 | 8.0 | 16.0 | 0.00 | 0.00 | 0.00 | 61 | 1004.8 |
| 20260505210005 | 87 | 178 | 8.0 | 16.0 | 0.00 | 0.00 | 0.00 | 61 | 1004.8 |
| 20260505205905 | 87 | 176 | 9.0 | 16.0 | 0.00 | 0.00 | 0.00 | 61 | 1004.8 |
| 20260505205805 | 87 | 175 | 9.0 | 16.0 | 0.00 | 0.00 | 0.00 | 61 | 1004.8 |
| 20260505205705 | 87 | 173 | 9.0 | 16.0 | 0.00 | 0.00 | 0.00 | 61 | 1004.8 |
| 20260505205605 | 86 | 171 | 10.0 | 16.0 | 0.00 | 0.00 | 0.00 | 61 | 1004.8 |
| 20260505205505 | 86 | 171 | 10.0 | 16.0 | 0.00 | 0.00 | 0.00 | 61 | 1004.8 |
| 20260505205405 | 87 | 171 | 10.0 | 16.0 | 0.00 | 0.00 | 0.00 | 60 | 1004.9 |
| 20260505205205 | 87 | 176 | 9.0 | 16.0 | 0.00 | 0.00 | 0.00 | 60 | 1004.9 |
| 20260505205104 | 87 | 175 | 9.0 | 15.0 | 0.00 | 0.00 | 0.00 | 59 | 1004.9 |
| 20260505205005 | 87 | 177 | 10.0 | 19.0 | 0.00 | 0.00 | 0.00 | 59 | 1004.9 |
| 20260505204905 | 87 | 179 | 9.0 | 19.0 | 0.00 | 0.00 | 0.00 | 59 | 1004.9 |
| 20260505204805 | 87 | 181 | 9.0 | 19.0 | 0.00 | 0.00 | 0.00 | 59 | 1004.8 |
| 20260505204705 | 87 | 184 | 9.0 | 19.0 | 0.00 | 0.00 | 0.00 | 59 | 1004.8 |
| 20260505204605 | 87 | 189 | 9.0 | 19.0 | 0.00 | 0.00 | 0.00 | 59 | 1004.9 |
| 20260505204505 | 88 | 193 | 9.0 | 19.0 | 0.00 | 0.00 | 0.00 | 60 | 1004.9 |
| 20260505204305 | 88 | 198 | 9.0 | 19.0 | 0.00 | 0.00 | 0.00 | 60 | 1004.9 |
| 20260505204205 | 88 | 198 | 10.0 | 19.0 | 0.00 | 0.00 | 0.00 | 60 | 1005.0 |
| 20260505204105 | 88 | 199 | 10.0 | 19.0 | 0.00 | 0.00 | 0.00 | 60 | 1005.0 |
| 20260505204005 | 87 | 194 | 10.0 | 19.0 | 0.00 | 0.00 | 0.00 | 59 | 1004.9 |
| 20260505203805 | 87 | 193 | 10.0 | 19.0 | 0.00 | 0.00 | 0.00 | 59 | 1005.0 |
| 20260505203704 | 87 | 193 | 10.0 | 19.0 | 0.00 | 0.00 | 0.00 | 59 | 1005.0 |
| 20260505203505 | 87 | 187 | 10.0 | 19.0 | 0.00 | 0.00 | 0.00 | 60 | 1005.0 |
| 20260505203405 | 87 | 186 | 10.0 | 19.0 | 0.00 | 0.00 | 0.00 | 60 | 1005.0 |
| 20260505203305 | 87 | 186 | 10.0 | 19.0 | 0.00 | 0.00 | 0.00 | 60 | 1005.0 |
| 20260505203206 | 87 | 183 | 10.0 | 19.0 | 0.00 | 0.00 | 0.00 | 60 | 1004.9 |
| 20260505203105 | 87 | 182 | 10.0 | 19.0 | 0.00 | 0.00 | 0.00 | 60 | 1004.9 |
| 20260505203006 | 87 | 186 | 10.0 | 16.0 | 0.00 | 0.00 | 0.00 | 60 | 1005.0 |
| 20260505202904 | 87 | 186 | 10.0 | 16.0 | 0.00 | 0.00 | 0.00 | 59 | 1005.0 |
| 20260505202805 | 87 | 185 | 9.0 | 16.0 | 0.00 | 0.00 | 0.00 | 59 | 1005.1 |
| 20260505202705 | 88 | 183 | 9.0 | 16.0 | 0.00 | 0.00 | 0.00 | 59 | 1005.0 |
| 20260505202605 | 88 | 183 | 9.0 | 16.0 | 0.00 | 0.00 | 0.00 | 59 | 1005.1 |
| 20260505202505 | 88 | 184 | 9.0 | 16.0 | 0.00 | 0.00 | 0.00 | 59 | 1005.1 |
| 20260505202405 | 88 | 181 | 9.0 | 16.0 | 0.00 | 0.00 | 0.00 | 59 | 1005.1 |
| 20260505202306 | 88 | 177 | 9.0 | 16.0 | 0.00 | 0.00 | 0.00 | 59 | 1005.2 |
| 20260505202206 | 88 | 176 | 9.0 | 16.0 | 0.00 | 0.00 | 0.00 | 59 | 1005.2 |
| 20260505202104 | 88 | 175 | 9.0 | 16.0 | 0.00 | 0.00 | 0.00 | 59 | 1005.2 |
| 20260505201905 | 88 | 174 | 8.0 | 16.0 | 0.00 | 0.00 | 0.00 | 60 | 1005.0 |
| 20260505201805 | 88 | 177 | 8.0 | 16.0 | 0.00 | 0.00 | 0.00 | 60 | 1005.0 |
| 20260505201705 | 88 | 181 | 8.0 | 16.0 | 0.00 | 0.00 | 0.00 | 60 | 1005.0 |
| 20260505201606 | 88 | 179 | 9.0 | 16.0 | 0.00 | 0.00 | 0.00 | 60 | 1005.0 |
| 20260505201505 | 88 | 179 | 9.0 | 16.0 | 0.00 | 0.00 | 0.00 | 59 | 1005.1 |
| 20260505201405 | 88 | 184 | 9.0 | 16.0 | 0.00 | 0.00 | 0.00 | 59 | 1005.1 |
| 20260505201305 | 88 | 186 | 9.0 | 16.0 | 0.00 | 0.00 | 0.00 | 59 | 1005.1 |
| 20260505201205 | 88 | 186 | 9.0 | 16.0 | 0.00 | 0.00 | 0.00 | 60 | 1005.1 |
| 20260505201105 | 88 | 187 | 9.0 | 15.0 | 0.00 | 0.00 | 0.00 | 60 | 1005.1 |
| 20260505201005 | 87 | 188 | 9.0 | 15.0 | 0.00 | 0.00 | 0.00 | 61 | 1005.1 |
| 20260505200905 | 87 | 185 | 9.0 | 15.0 | 0.00 | 0.00 | 0.00 | 61 | 1005.2 |
| 20260505200805 | 87 | 182 | 10.0 | 16.0 | 0.00 | 0.00 | 0.00 | 60 | 1005.2 |
| 20260505200705 | 87 | 178 | 10.0 | 17.0 | 0.00 | 0.00 | 0.00 | 60 | 1005.3 |
| 20260505200605 | 87 | 178 | 10.0 | 17.0 | 0.00 | 0.00 | 0.00 | 59 | 1005.3 |
| 20260505200505 | 87 | 179 | 10.0 | 17.0 | 0.00 | 0.00 | 0.00 | 61 | 1005.3 |
| 20260505200405 | 87 | 176 | 10.0 | 17.0 | 0.00 | 0.00 | 0.00 | 61 | 1005.4 |
| 20260505200305 | 86 | 176 | 11.0 | 17.0 | 0.00 | 0.00 | 0.00 | 60 | 1005.3 |
| 20260505200105 | 86 | 177 | 11.0 | 17.0 | 0.00 | 0.00 | 0.00 | 61 | 1005.4 |
| 20260505195805 | 87 | 174 | 10.0 | 17.0 | 0.00 | 0.00 | 0.00 | 62 | 1005.4 |
| 20260505195705 | 86 | 174 | 11.0 | 16.0 | 0.00 | 0.00 | 0.00 | 62 | 1005.3 |
| 20260505195605 | 86 | 175 | 11.0 | 16.0 | 0.00 | 0.00 | 0.00 | 62 | 1005.3 |
| 20260505195505 | 86 | 173 | 11.0 | 16.0 | 0.00 | 0.00 | 0.00 | 62 | 1005.4 |
| 20260505195405 | 86 | 174 | 11.0 | 17.0 | 0.00 | 0.00 | 0.00 | 62 | 1005.3 |
| 20260505195305 | 86 | 173 | 10.0 | 17.0 | 0.00 | 0.00 | 0.00 | 62 | 1005.4 |
| 20260505195205 | 86 | 173 | 11.0 | 17.0 | 0.00 | 0.00 | 0.00 | 62 | 1005.3 |
| 20260505195105 | 86 | 171 | 11.0 | 17.0 | 0.00 | 0.00 | 0.00 | 62 | 1005.4 |
| 20260505195005 | 86 | 174 | 10.0 | 17.0 | 0.00 | 0.00 | 0.00 | 61 | 1005.3 |
| 20260505194906 | 86 | 177 | 10.0 | 17.0 | 0.00 | 0.00 | 0.00 | 61 | 1005.3 |
| 20260505194805 | 86 | 184 | 10.0 | 17.0 | 0.00 | 0.00 | 0.00 | 60 | 1005.3 |
| 20260505194705 | 86 | 187 | 9.0 | 17.0 | 0.00 | 0.00 | 0.00 | 62 | 1005.3 |
| 20260505194605 | 86 | 188 | 9.0 | 17.0 | 0.00 | 0.00 | 0.00 | 61 | 1005.3 |
| 20260505194505 | 86 | 189 | 8.0 | 17.0 | 0.00 | 0.00 | 0.00 | 60 | 1005.3 |
| 20260505194405 | 86 | 191 | 8.0 | 16.0 | 0.00 | 0.00 | 0.00 | 62 | 1005.4 |
| 20260505194305 | 86 | 193 | 8.0 | 14.0 | 0.00 | 0.00 | 0.00 | 61 | 1005.4 |
| 20260505194205 | 87 | 196 | 8.0 | 14.0 | 0.00 | 0.00 | 0.00 | 61 | 1005.4 |
| 20260505194104 | 87 | 198 | 8.0 | 14.0 | 0.00 | 0.00 | 0.00 | 61 | 1005.4 |
| 20260505194005 | 87 | 197 | 8.0 | 14.0 | 0.00 | 0.00 | 0.00 | 62 | 1005.5 |
| 20260505193905 | 87 | 195 | 8.0 | 14.0 | 0.00 | 0.00 | 0.00 | 62 | 1005.5 |
| 20260505193805 | 87 | 194 | 8.0 | 14.0 | 0.00 | 0.00 | 0.00 | 62 | 1005.5 |
| 20260505193705 | 87 | 196 | 8.0 | 14.0 | 0.00 | 0.00 | 0.00 | 62 | 1005.5 |
| 20260505193504 | 87 | 197 | 8.0 | 13.0 | 0.00 | 0.00 | 0.00 | 62 | 1005.5 |
| 20260505193405 | 87 | 196 | 8.0 | 13.0 | 0.00 | 0.00 | 0.00 | 62 | 1005.5 |
| 20260505193304 | 87 | 197 | 8.0 | 13.0 | 0.00 | 0.00 | 0.00 | 62 | 1005.6 |
| 20260505193205 | 87 | 199 | 8.0 | 14.0 | 0.00 | 0.00 | 0.00 | 62 | 1005.5 |
| 20260505193105 | 86 | 198 | 8.0 | 15.0 | 0.00 | 0.00 | 0.00 | 63 | 1005.5 |
| 20260505192905 | 86 | 194 | 8.0 | 16.0 | 0.00 | 0.00 | 0.00 | 62 | 1005.5 |
| 20260505192807 | 86 | 194 | 8.0 | 16.0 | 0.00 | 0.00 | 0.00 | 61 | 1005.5 |
| 20260505192605 | 87 | 188 | 8.0 | 16.0 | 0.00 | 0.00 | 0.00 | 63 | 1005.6 |
| 20260505192405 | 86 | 187 | 9.0 | 16.0 | 0.00 | 0.00 | 0.00 | 63 | 1005.6 |
| 20260505192306 | 86 | 185 | 9.0 | 16.0 | 0.00 | 0.00 | 0.00 | 62 | 1005.6 |
| 20260505192106 | 86 | 182 | 8.0 | 16.0 | 0.00 | 0.00 | 0.00 | 63 | 1005.7 |
| 20260505192005 | 86 | 184 | 8.0 | 15.0 | 0.00 | 0.00 | 0.00 | 63 | 1005.7 |
| 20260505191905 | 86 | 186 | 7.0 | 15.0 | 0.00 | 0.00 | 0.00 | 63 | 1005.7 |
| 20260505191805 | 86 | 184 | 7.0 | 15.0 | 0.00 | 0.00 | 0.00 | 62 | 1005.7 |
| 20260505191605 | 86 | 186 | 7.0 | 15.0 | 0.00 | 0.00 | 0.00 | 63 | 1005.8 |
| 20260505191306 | 86 | 177 | 7.0 | 14.0 | 0.00 | 0.00 | 0.00 | 64 | 1005.8 |
| 20260505191105 | 85 | 176 | 8.0 | 14.0 | 0.00 | 0.00 | 0.00 | 64 | 1005.9 |
| 20260505191005 | 85 | 178 | 8.0 | 14.0 | 0.00 | 0.00 | 0.00 | 67 | 1005.9 |
| 20260505190906 | 84 | 178 | 8.0 | 17.0 | 0.00 | 0.00 | 0.00 | 66 | 1005.9 |
| 20260505190805 | 84 | 176 | 8.0 | 18.0 | 0.00 | 0.00 | 0.00 | 65 | 1005.9 |
| 20260505190605 | 84 | 177 | 8.0 | 18.0 | 0.00 | 0.00 | 0.00 | 64 | 1005.9 |
| 20260505190305 | 85 | 191 | 8.0 | 18.0 | 0.00 | 0.00 | 0.00 | 63 | 1005.9 |
| 20260505190104 | 85 | 188 | 9.0 | 18.0 | 0.00 | 0.00 | 0.00 | 64 | 1006.0 |
| 20260505190005 | 85 | 186 | 9.0 | 18.0 | 0.00 | 0.00 | 0.00 | 63 | 1005.8 |
| 20260505185905 | 85 | 186 | 9.0 | 18.0 | 0.00 | 0.00 | 0.00 | 66 | 1006.0 |
| 20260505185805 | 85 | 188 | 10.0 | 14.0 | 0.00 | 0.00 | 0.00 | 65 | 1005.9 |
| 20260505185704 | 84 | 187 | 10.0 | 15.0 | 0.00 | 0.00 | 0.00 | 65 | 1006.0 |
| 20260505185605 | 84 | 187 | 10.0 | 15.0 | 0.00 | 0.00 | 0.00 | 66 | 1006.0 |
| 20260505185504 | 84 | 188 | 10.0 | 17.0 | 0.00 | 0.00 | 0.00 | 66 | 1006.0 |
| 20260505185305 | 84 | 185 | 10.0 | 18.0 | 0.00 | 0.00 | 0.00 | 65 | 1006.0 |
| 20260505185204 | 84 | 187 | 10.0 | 18.0 | 0.00 | 0.00 | 0.00 | 64 | 1006.0 |
| 20260505185105 | 84 | 190 | 10.0 | 18.0 | 0.00 | 0.00 | 0.00 | 65 | 1006.0 |
| 20260505185005 | 84 | 189 | 10.0 | 18.0 | 0.00 | 0.00 | 0.00 | 64 | 1006.0 |
| 20260505184905 | 84 | 192 | 10.0 | 18.0 | 0.00 | 0.00 | 0.00 | 64 | 1006.1 |
| 20260505184705 | 84 | 197 | 10.0 | 18.0 | 0.00 | 0.00 | 0.00 | 65 | 1006.2 |
| 20260505184605 | 83 | 198 | 10.0 | 18.0 | 0.00 | 0.00 | 0.00 | 65 | 1006.2 |
| 20260505184504 | 84 | 198 | 10.0 | 18.0 | 0.00 | 0.00 | 0.00 | 65 | 1006.2 |
| 20260505184405 | 84 | 199 | 10.0 | 16.0 | 0.00 | 0.00 | 0.00 | 65 | 1006.3 |
| 20260505184306 | 84 | 197 | 10.0 | 16.0 | 0.00 | 0.00 | 0.00 | 65 | 1006.2 |
| 20260505184206 | 84 | 197 | 10.0 | 17.0 | 0.00 | 0.00 | 0.00 | 65 | 1006.3 |
| 20260505184105 | 84 | 196 | 10.0 | 17.0 | 0.00 | 0.00 | 0.00 | 65 | 1006.2 |
| 20260505184005 | 83 | 196 | 10.0 | 17.0 | 0.00 | 0.00 | 0.00 | 66 | 1006.2 |
| 20260505183905 | 83 | 193 | 10.0 | 17.0 | 0.00 | 0.00 | 0.00 | 65 | 1006.3 |
| 20260505183805 | 84 | 189 | 11.0 | 17.0 | 0.00 | 0.00 | 0.00 | 65 | 1006.3 |
| 20260505183706 | 84 | 186 | 11.0 | 17.0 | 0.00 | 0.00 | 0.00 | 65 | 1006.3 |
| 20260505183605 | 84 | 189 | 10.0 | 21.0 | 0.00 | 0.00 | 0.00 | 66 | 1006.2 |
| 20260505183505 | 84 | 192 | 10.0 | 21.0 | 0.00 | 0.00 | 0.00 | 66 | 1006.3 |
| 20260505183405 | 83 | 194 | 10.0 | 21.0 | 0.00 | 0.00 | 0.00 | 66 | 1006.2 |
| 20260505183305 | 83 | 196 | 10.0 | 21.0 | 0.00 | 0.00 | 0.00 | 66 | 1006.3 |
| 20260505183206 | 83 | 193 | 10.0 | 21.0 | 0.00 | 0.00 | 0.00 | 66 | 1006.3 |
| 20260505183106 | 83 | 193 | 10.0 | 21.0 | 0.00 | 0.00 | 0.00 | 66 | 1006.3 |
| 20260505183005 | 83 | 194 | 10.0 | 21.0 | 0.00 | 0.00 | 0.00 | 67 | 1006.4 |
| 20260505182905 | 83 | 195 | 9.0 | 21.0 | 0.00 | 0.00 | 0.00 | 66 | 1006.4 |
| 20260505182805 | 83 | 199 | 9.0 | 21.0 | 0.00 | 0.00 | 0.00 | 67 | 1006.5 |
| 20260505182605 | 83 | 195 | 9.0 | 16.0 | 0.00 | 0.00 | 0.00 | 65 | 1006.6 |
| 20260505182504 | 83 | 192 | 9.0 | 16.0 | 0.00 | 0.00 | 0.00 | 66 | 1006.7 |
| 20260505182205 | 83 | 188 | 10.0 | 17.0 | 0.00 | 0.00 | 0.00 | 66 | 1006.6 |
| 20260505182105 | 83 | 187 | 10.0 | 17.0 | 0.00 | 0.00 | 0.00 | 66 | 1006.6 |
| 20260505182005 | 83 | 188 | 10.0 | 17.0 | 0.00 | 0.00 | 0.00 | 66 | 1006.6 |
| 20260505181904 | 83 | 190 | 10.0 | 17.0 | 0.00 | 0.00 | 0.00 | 66 | 1006.6 |
| 20260505181806 | 82 | 190 | 10.0 | 17.0 | 0.00 | 0.00 | 0.00 | 66 | 1006.6 |
| 20260505181704 | 82 | 191 | 10.0 | 17.0 | 0.00 | 0.00 | 0.00 | 66 | 1006.6 |
| 20260505181605 | 82 | 192 | 10.0 | 17.0 | 0.00 | 0.00 | 0.00 | 66 | 1006.6 |
| 20260505181505 | 82 | 194 | 10.0 | 17.0 | 0.00 | 0.00 | 0.00 | 66 | 1006.7 |
| 20260505181304 | 82 | 199 | 10.0 | 17.0 | 0.00 | 0.00 | 0.00 | 68 | 1006.7 |
| 20260505181205 | 82 | 198 | 10.0 | 17.0 | 0.00 | 0.00 | 0.00 | 67 | 1006.7 |
| 20260505181104 | 82 | 201 | 10.0 | 17.0 | 0.00 | 0.00 | 0.00 | 68 | 1006.7 |
| 20260505181005 | 82 | 200 | 10.0 | 20.0 | 0.00 | 0.00 | 0.00 | 67 | 1006.8 |
| 20260505180904 | 82 | 199 | 10.0 | 20.0 | 0.00 | 0.00 | 0.00 | 67 | 1006.8 |
| 20260505180806 | 82 | 198 | 10.0 | 20.0 | 0.00 | 0.00 | 0.00 | 68 | 1006.7 |
| 20260505180604 | 82 | 198 | 10.0 | 20.0 | 0.00 | 0.00 | 0.00 | 68 | 1006.8 |
| 20260505180505 | 82 | 200 | 11.0 | 20.0 | 0.00 | 0.00 | 0.00 | 68 | 1006.7 |
| 20260505180405 | 82 | 201 | 11.0 | 20.0 | 0.00 | 0.00 | 0.00 | 68 | 1006.7 |
| 20260505180305 | 82 | 200 | 12.0 | 20.0 | 0.00 | 0.00 | 0.00 | 67 | 1006.7 |
| 20260505180205 | 82 | 202 | 11.0 | 20.0 | 0.00 | 0.00 | 0.00 | 67 | 1006.7 |
| 20260505180105 | 82 | 202 | 11.0 | 20.0 | 0.00 | 0.00 | 0.00 | 66 | 1006.7 |
| 20260505180005 | 82 | 204 | 10.0 | 20.0 | 0.00 | 0.00 | 0.00 | 68 | 1006.6 |
| 20260505175904 | 82 | 204 | 10.0 | 20.0 | 0.00 | 0.00 | 0.00 | 68 | 1006.6 |
| 20260505175805 | 82 | 203 | 10.0 | 20.0 | 0.00 | 0.00 | 0.00 | 67 | 1006.7 |
| 20260505175705 | 82 | 203 | 10.0 | 20.0 | 0.00 | 0.00 | 0.00 | 67 | 1006.7 |
| 20260505175605 | 82 | 201 | 10.0 | 20.0 | 0.00 | 0.00 | 0.00 | 67 | 1006.7 |
| 20260505175505 | 82 | 197 | 10.0 | 20.0 | 0.00 | 0.00 | 0.00 | 67 | 1006.7 |
| 20260505175405 | 83 | 197 | 9.0 | 20.0 | 0.00 | 0.00 | 0.00 | 67 | 1006.8 |
| 20260505175305 | 83 | 195 | 9.0 | 20.0 | 0.00 | 0.00 | 0.00 | 67 | 1006.8 |
| 20260505175206 | 82 | 192 | 9.0 | 20.0 | 0.00 | 0.00 | 0.00 | 69 | 1006.7 |
| 20260505175104 | 82 | 190 | 9.0 | 20.0 | 0.00 | 0.00 | 0.00 | 70 | 1006.8 |
| 20260505175005 | 82 | 189 | 10.0 | 20.0 | 0.00 | 0.00 | 0.00 | 69 | 1006.8 |
| 20260505174905 | 81 | 191 | 10.0 | 20.0 | 0.00 | 0.00 | 0.00 | 68 | 1006.8 |
| 20260505174805 | 81 | 193 | 10.0 | 20.0 | 0.00 | 0.00 | 0.00 | 67 | 1006.8 |
| 20260505174705 | 82 | 195 | 10.0 | 20.0 | 0.00 | 0.00 | 0.00 | 69 | 1006.9 |
| 20260505174605 | 81 | 195 | 10.0 | 20.0 | 0.00 | 0.00 | 0.00 | 69 | 1006.8 |
| 20260505174504 | 81 | 194 | 10.0 | 20.0 | 0.00 | 0.00 | 0.00 | 68 | 1006.9 |
| 20260505174405 | 81 | 193 | 10.0 | 19.0 | 0.00 | 0.00 | 0.00 | 69 | 1006.9 |
| 20260505174305 | 81 | 193 | 11.0 | 19.0 | 0.00 | 0.00 | 0.00 | 68 | 1006.9 |
| 20260505174205 | 81 | 194 | 11.0 | 19.0 | 0.00 | 0.00 | 0.00 | 68 | 1007.0 |
| 20260505174005 | 81 | 197 | 11.0 | 20.0 | 0.00 | 0.00 | 0.00 | 69 | 1007.0 |
| 20260505173904 | 81 | 197 | 11.0 | 20.0 | 0.00 | 0.00 | 0.00 | 69 | 1007.0 |
| 20260505173705 | 81 | 196 | 11.0 | 20.0 | 0.00 | 0.00 | 0.00 | 69 | 1007.0 |
| 20260505173605 | 81 | 197 | 11.0 | 20.0 | 0.00 | 0.00 | 0.00 | 68 | 1007.0 |
| 20260505173505 | 81 | 198 | 11.0 | 20.0 | 0.00 | 0.00 | 0.00 | 68 | 1007.0 |
| 20260505173405 | 81 | 198 | 11.0 | 20.0 | 0.00 | 0.00 | 0.00 | 68 | 1007.1 |
| 20260505173304 | 81 | 198 | 10.0 | 20.0 | 0.00 | 0.00 | 0.00 | 69 | 1007.1 |
| 20260505173205 | 81 | 200 | 10.0 | 20.0 | 0.00 | 0.00 | 0.00 | 70 | 1007.1 |
| 20260505173104 | 81 | 203 | 10.0 | 20.0 | 0.00 | 0.00 | 0.00 | 69 | 1007.1 |
| 20260505173005 | 81 | 204 | 10.0 | 17.0 | 0.00 | 0.00 | 0.00 | 70 | 1007.1 |
| 20260505172905 | 81 | 203 | 10.0 | 17.0 | 0.00 | 0.00 | 0.00 | 69 | 1007.1 |
| 20260505172805 | 81 | 199 | 11.0 | 19.0 | 0.00 | 0.00 | 0.00 | 70 | 1007.1 |
| 20260505172705 | 81 | 200 | 11.0 | 20.0 | 0.00 | 0.00 | 0.00 | 69 | 1007.1 |
| 20260505172505 | 81 | 202 | 11.0 | 20.0 | 0.00 | 0.00 | 0.00 | 70 | 1007.1 |
| 20260505172405 | 81 | 201 | 11.0 | 20.0 | 0.00 | 0.00 | 0.00 | 70 | 1007.2 |
| 20260505172306 | 81 | 203 | 12.0 | 20.0 | 0.00 | 0.00 | 0.00 | 70 | 1007.2 |
| 20260505172205 | 80 | 203 | 12.0 | 20.0 | 0.00 | 0.00 | 0.00 | 70 | 1007.1 |
| 20260505172105 | 80 | 201 | 12.0 | 20.0 | 0.00 | 0.00 | 0.00 | 70 | 1007.1 |
| 20260505171805 | 81 | 204 | 11.0 | 23.0 | 0.00 | 0.00 | 0.00 | 69 | 1007.0 |
| 20260505171705 | 81 | 203 | 11.0 | 23.0 | 0.00 | 0.00 | 0.00 | 70 | 1007.1 |
| 20260505171605 | 81 | 206 | 11.0 | 23.0 | 0.00 | 0.00 | 0.00 | 69 | 1007.0 |
| 20260505171504 | 81 | 206 | 10.0 | 23.0 | 0.00 | 0.00 | 0.00 | 70 | 1007.0 |
| 20260505171405 | 81 | 208 | 10.0 | 23.0 | 0.00 | 0.00 | 0.00 | 70 | 1007.0 |
| 20260505171304 | 80 | 207 | 10.0 | 23.0 | 0.00 | 0.00 | 0.00 | 70 | 1007.0 |
| 20260505171206 | 80 | 206 | 10.0 | 23.0 | 0.00 | 0.00 | 0.00 | 70 | 1007.0 |
| 20260505171104 | 80 | 206 | 10.0 | 23.0 | 0.00 | 0.00 | 0.00 | 70 | 1006.9 |
| 20260505171005 | 80 | 206 | 11.0 | 19.0 | 0.00 | 0.00 | 0.00 | 70 | 1006.9 |
| 20260505170904 | 80 | 205 | 11.0 | 19.0 | 0.00 | 0.00 | 0.00 | 70 | 1006.9 |
| 20260505170805 | 80 | 205 | 11.0 | 19.0 | 0.00 | 0.00 | 0.00 | 70 | 1006.9 |
| 20260505170704 | 80 | 206 | 11.0 | 19.0 | 0.00 | 0.00 | 0.00 | 70 | 1006.9 |
| 20260505170605 | 80 | 203 | 11.0 | 19.0 | 0.00 | 0.00 | 0.00 | 70 | 1006.9 |
| 20260505170504 | 80 | 202 | 11.0 | 19.0 | 0.00 | 0.00 | 0.00 | 69 | 1006.9 |
| 20260505170405 | 80 | 201 | 11.0 | 19.0 | 0.00 | 0.00 | 0.00 | 69 | 1006.9 |
| 20260505170305 | 80 | 201 | 11.0 | 19.0 | 0.00 | 0.00 | 0.00 | 70 | 1006.9 |
| 20260505170205 | 80 | 200 | 11.0 | 19.0 | 0.00 | 0.00 | 0.00 | 71 | 1006.9 |
| 20260505170105 | 80 | 200 | 11.0 | 19.0 | 0.00 | 0.00 | 0.00 | 71 | 1006.9 |
| 20260505165905 | 80 | 198 | 11.0 | 19.0 | 0.00 | 0.00 | 0.00 | 71 | 1007.0 |
| 20260505165806 | 80 | 198 | 11.0 | 19.0 | 0.00 | 0.00 | 0.00 | 71 | 1007.0 |
| 20260505165704 | 80 | 197 | 11.0 | 19.0 | 0.00 | 0.00 | 0.00 | 71 | 1007.0 |
| 20260505165605 | 79 | 195 | 11.0 | 19.0 | 0.00 | 0.00 | 0.00 | 71 | 1007.0 |
| 20260505165505 | 80 | 196 | 10.0 | 19.0 | 0.00 | 0.00 | 0.00 | 71 | 1007.0 |
| 20260505165404 | 80 | 194 | 11.0 | 18.0 | 0.00 | 0.00 | 0.00 | 71 | 1007.0 |
| 20260505165306 | 80 | 194 | 11.0 | 18.0 | 0.00 | 0.00 | 0.00 | 72 | 1007.0 |
| 20260505165205 | 80 | 193 | 10.0 | 18.0 | 0.00 | 0.00 | 0.00 | 72 | 1007.0 |
| 20260505165105 | 80 | 192 | 10.0 | 17.0 | 0.00 | 0.00 | 0.00 | 72 | 1007.0 |
| 20260505165005 | 80 | 193 | 10.0 | 17.0 | 0.00 | 0.00 | 0.00 | 72 | 1006.9 |
| 20260505164904 | 80 | 199 | 10.0 | 17.0 | 0.00 | 0.00 | 0.00 | 72 | 1006.9 |
| 20260505164804 | 79 | 200 | 11.0 | 18.0 | 0.00 | 0.00 | 0.00 | 72 | 1007.0 |
| 20260505164705 | 79 | 200 | 10.0 | 18.0 | 0.00 | 0.00 | 0.00 | 71 | 1007.0 |
| 20260505164604 | 79 | 201 | 11.0 | 18.0 | 0.00 | 0.00 | 0.00 | 73 | 1007.0 |
| 20260505164505 | 79 | 200 | 11.0 | 18.0 | 0.00 | 0.00 | 0.00 | 71 | 1007.0 |
| 20260505164405 | 79 | 202 | 10.0 | 18.0 | 0.00 | 0.00 | 0.00 | 72 | 1007.0 |
| 20260505164306 | 79 | 203 | 10.0 | 18.0 | 0.00 | 0.00 | 0.00 | 72 | 1007.0 |
| 20260505164205 | 79 | 204 | 11.0 | 18.0 | 0.00 | 0.00 | 0.00 | 72 | 1007.0 |
| 20260505164104 | 79 | 206 | 11.0 | 18.0 | 0.00 | 0.00 | 0.00 | 72 | 1006.9 |
| 20260505164005 | 79 | 207 | 11.0 | 19.0 | 0.00 | 0.00 | 0.00 | 71 | 1007.0 |
| 20260505163905 | 79 | 207 | 11.0 | 23.0 | 0.00 | 0.00 | 0.00 | 71 | 1006.9 |
| 20260505163805 | 80 | 208 | 10.0 | 23.0 | 0.00 | 0.00 | 0.00 | 71 | 1006.9 |
| 20260505163705 | 79 | 209 | 11.0 | 23.0 | 0.00 | 0.00 | 0.00 | 71 | 1006.9 |
| 20260505163605 | 79 | 211 | 10.0 | 23.0 | 0.00 | 0.00 | 0.00 | 73 | 1007.1 |
| 20260505163504 | 79 | 214 | 11.0 | 23.0 | 0.00 | 0.00 | 0.00 | 73 | 1007.0 |
| 20260505163304 | 78 | 214 | 11.0 | 23.0 | 0.00 | 0.00 | 0.00 | 73 | 1007.1 |
| 20260505163205 | 78 | 213 | 11.0 | 23.0 | 0.00 | 0.00 | 0.00 | 72 | 1007.0 |
| 20260505163104 | 79 | 212 | 11.0 | 23.0 | 0.00 | 0.00 | 0.00 | 72 | 1007.1 |
| 20260505163006 | 79 | 211 | 10.0 | 23.0 | 0.00 | 0.00 | 0.00 | 72 | 1007.1 |
| 20260505162905 | 79 | 209 | 10.0 | 18.0 | 0.00 | 0.00 | 0.00 | 73 | 1007.1 |
| 20260505162805 | 78 | 207 | 10.0 | 18.0 | 0.00 | 0.00 | 0.00 | 72 | 1007.1 |
| 20260505162705 | 78 | 206 | 10.0 | 18.0 | 0.00 | 0.00 | 0.00 | 72 | 1007.0 |
| 20260505162605 | 79 | 206 | 10.0 | 18.0 | 0.00 | 0.00 | 0.00 | 72 | 1007.1 |
| 20260505162505 | 79 | 204 | 9.0 | 18.0 | 0.00 | 0.00 | 0.00 | 71 | 1007.1 |
| 20260505162404 | 79 | 205 | 9.0 | 18.0 | 0.00 | 0.00 | 0.00 | 72 | 1007.1 |
| 20260505162307 | 79 | 206 | 9.0 | 17.0 | 0.00 | 0.00 | 0.00 | 73 | 1007.1 |
| 20260505162204 | 78 | 205 | 9.0 | 17.0 | 0.00 | 0.00 | 0.00 | 74 | 1007.1 |
| 20260505162104 | 78 | 204 | 8.0 | 17.0 | 0.00 | 0.00 | 0.00 | 74 | 1007.1 |
| 20260505162005 | 78 | 205 | 9.0 | 17.0 | 0.00 | 0.00 | 0.00 | 74 | 1007.1 |
| 20260505161904 | 78 | 207 | 9.0 | 17.0 | 0.00 | 0.00 | 0.00 | 74 | 1007.2 |
| 20260505161805 | 78 | 208 | 9.0 | 17.0 | 0.00 | 0.00 | 0.00 | 74 | 1007.2 |
| 20260505161605 | 77 | 206 | 10.0 | 17.0 | 0.00 | 0.00 | 0.00 | 74 | 1007.2 |
| 20260505161405 | 77 | 204 | 10.0 | 20.0 | 0.00 | 0.00 | 0.00 | 74 | 1007.2 |
| 20260505161305 | 77 | 202 | 11.0 | 20.0 | 0.00 | 0.00 | 0.00 | 75 | 1007.3 |
| 20260505161204 | 77 | 204 | 11.0 | 20.0 | 0.00 | 0.00 | 0.00 | 75 | 1007.3 |
| 20260505161104 | 77 | 205 | 11.0 | 20.0 | 0.00 | 0.00 | 0.00 | 75 | 1007.3 |
| 20260505161005 | 77 | 205 | 11.0 | 20.0 | 0.00 | 0.00 | 0.00 | 75 | 1007.3 |
| 20260505160904 | 76 | 205 | 11.0 | 20.0 | 0.00 | 0.00 | 0.00 | 75 | 1007.3 |
| 20260505160805 | 77 | 204 | 11.0 | 20.0 | 0.00 | 0.00 | 0.00 | 75 | 1007.3 |
| 20260505160704 | 76 | 202 | 11.0 | 20.0 | 0.00 | 0.00 | 0.00 | 75 | 1007.3 |
| 20260505160605 | 76 | 202 | 10.0 | 20.0 | 0.00 | 0.00 | 0.00 | 75 | 1007.3 |
| 20260505160504 | 76 | 202 | 9.0 | 20.0 | 0.00 | 0.00 | 0.00 | 75 | 1007.3 |
| 20260505160405 | 76 | 201 | 9.0 | 19.0 | 0.00 | 0.00 | 0.00 | 75 | 1007.3 |
| 20260505160306 | 76 | 199 | 8.0 | 19.0 | 0.00 | 0.00 | 0.00 | 75 | 1007.3 |
| 20260505160206 | 77 | 198 | 8.0 | 15.0 | 0.00 | 0.00 | 0.00 | 76 | 1007.3 |
| 20260505160104 | 76 | 197 | 8.0 | 15.0 | 0.00 | 0.00 | 0.00 | 76 | 1007.2 |
| 20260505153204 | 75 | 207 | 10.0 | 19.0 | 0.00 | 0.00 | 0.00 | 78 | 1007.1 |
| 20260505153105 | 75 | 205 | 10.0 | 19.0 | 0.00 | 0.00 | 0.00 | 78 | 1007.1 |
| 20260505153005 | 75 | 205 | 10.0 | 19.0 | 0.00 | 0.00 | 0.00 | 78 | 1007.1 |
| 20260505152905 | 75 | 200 | 10.0 | 19.0 | 0.00 | 0.00 | 0.00 | 77 | 1007.2 |
| 20260505152704 | 76 | 196 | 9.0 | 19.0 | 0.00 | 0.00 | 0.00 | 77 | 1007.1 |
| 20260505152605 | 76 | 195 | 8.0 | 16.0 | 0.00 | 0.00 | 0.00 | 77 | 1007.1 |
| 20260505152505 | 76 | 197 | 8.0 | 16.0 | 0.00 | 0.00 | 0.00 | 78 | 1007.1 |
| 20260505152405 | 76 | 199 | 9.0 | 16.0 | 0.00 | 0.00 | 0.00 | 78 | 1007.1 |
| 20260505152205 | 75 | 202 | 9.0 | 18.0 | 0.00 | 0.00 | 0.00 | 78 | 1007.1 |
| 20260505152104 | 75 | 203 | 9.0 | 18.0 | 0.00 | 0.00 | 0.00 | 79 | 1007.2 |
| 20260505152005 | 75 | 204 | 9.0 | 18.0 | 0.00 | 0.00 | 0.00 | 79 | 1007.1 |
| 20260505151804 | 75 | 206 | 9.0 | 18.0 | 0.00 | 0.00 | 0.00 | 79 | 1007.1 |
| 20260505151705 | 75 | 207 | 9.0 | 18.0 | 0.00 | 0.00 | 0.00 | 79 | 1007.2 |
| 20260505151604 | 75 | 208 | 9.0 | 18.0 | 0.00 | 0.00 | 0.00 | 79 | 1007.3 |
| 20260505151505 | 75 | 208 | 9.0 | 18.0 | 0.00 | 0.00 | 0.00 | 79 | 1007.2 |
| 20260505151404 | 75 | 209 | 9.0 | 18.0 | 0.00 | 0.00 | 0.00 | 79 | 1007.2 |
| 20260505151304 | 75 | 207 | 9.0 | 16.0 | 0.00 | 0.00 | 0.00 | 79 | 1007.2 |
| 20260505151204 | 74 | 206 | 9.0 | 16.0 | 0.00 | 0.00 | 0.00 | 79 | 1007.2 |
| 20260505151106 | 74 | 207 | 9.0 | 16.0 | 0.00 | 0.00 | 0.00 | 79 | 1007.1 |
| 20260505150904 | 74 | 208 | 9.0 | 16.0 | 0.00 | 0.00 | 0.00 | 80 | 1007.2 |
| 20260505150806 | 74 | 207 | 8.0 | 16.0 | 0.00 | 0.00 | 0.00 | 79 | 1007.2 |
| 20260505150505 | 74 | 204 | 8.0 | 17.0 | 0.00 | 0.00 | 0.00 | 79 | 1007.1 |
| 20260505150404 | 74 | 203 | 8.0 | 17.0 | 0.00 | 0.00 | 0.00 | 80 | 1007.1 |
| 20260505150305 | 74 | 205 | 8.0 | 17.0 | 0.00 | 0.00 | 0.00 | 80 | 1007.1 |
| 20260505150205 | 74 | 206 | 8.0 | 17.0 | 0.00 | 0.00 | 0.00 | 80 | 1007.1 |
| 20260505150104 | 74 | 207 | 8.0 | 17.0 | 0.00 | 0.00 | 0.00 | 80 | 1007.2 |
| 20260505140404 | 72 | 202 | 9.0 | 16.0 | 0.00 | 0.00 | 0.00 | 83 | 1006.8 |
| 20260505140305 | 72 | 201 | 9.0 | 16.0 | 0.00 | 0.00 | 0.00 | 83 | 1006.7 |
| 20260505140104 | 72 | 199 | 9.0 | 16.0 | 0.00 | 0.00 | 0.00 | 83 | 1006.7 |
| 20260505130305 | 71 | 187 | 7.0 | 15.0 | 0.00 | 0.00 | 0.00 | 84 | 1006.3 |
| 20260505130204 | 71 | 185 | 7.0 | 15.0 | 0.00 | 0.00 | 0.00 | 84 | 1006.4 |
| 20260505125004 | 71 | 179 | 6.0 | 12.0 | 0.00 | 0.00 | 0.00 | 84 | 1006.2 |
| 20260505124904 | 71 | 178 | 7.0 | 12.0 | 0.00 | 0.00 | 0.00 | 84 | 1006.1 |
| 20260505124804 | 71 | 179 | 6.0 | 12.0 | 0.00 | 0.00 | 0.00 | 84 | 1006.1 |
| 20260505124604 | 71 | 179 | 7.0 | 12.0 | 0.00 | 0.00 | 0.00 | 85 | 1006.0 |
| 20260505124504 | 71 | 179 | 7.0 | 12.0 | 0.00 | 0.00 | 0.00 | 84 | 1006.0 |
| 20260505124304 | 71 | 177 | 7.0 | 12.0 | 0.00 | 0.00 | 0.00 | 85 | 1006.0 |
| 20260505124204 | 71 | 176 | 7.0 | 12.0 | 0.00 | 0.00 | 0.00 | 85 | 1006.0 |
| 20260505124104 | 71 | 176 | 7.0 | 12.0 | 0.00 | 0.00 | 0.00 | 85 | 1006.0 |
| 20260505124006 | 71 | 177 | 7.0 | 12.0 | 0.00 | 0.00 | 0.00 | 85 | 1006.0 |
| 20260505123904 | 71 | 177 | 7.0 | 12.0 | 0.00 | 0.00 | 0.00 | 85 | 1006.0 |
| 20260505123804 | 71 | 178 | 7.0 | 11.0 | 0.00 | 0.00 | 0.00 | 85 | 1005.9 |
| 20260505123505 | 71 | 184 | 6.0 | 11.0 | 0.00 | 0.00 | 0.00 | 85 | 1005.9 |
| 20260505123404 | 71 | 184 | 6.0 | 10.0 | 0.00 | 0.00 | 0.00 | 85 | 1005.9 |
| 20260505123305 | 71 | 186 | 6.0 | 10.0 | 0.00 | 0.00 | 0.00 | 85 | 1005.9 |
| 20260505123204 | 71 | 188 | 6.0 | 10.0 | 0.00 | 0.00 | 0.00 | 85 | 1005.9 |
| 20260505123104 | 71 | 188 | 6.0 | 10.0 | 0.00 | 0.00 | 0.00 | 85 | 1005.8 |
| 20260505123005 | 71 | 188 | 6.0 | 10.0 | 0.00 | 0.00 | 0.00 | 85 | 1005.8 |
| 20260505122904 | 71 | 185 | 6.0 | 10.0 | 0.00 | 0.00 | 0.00 | 85 | 1005.9 |
| 20260505122805 | 71 | 186 | 6.0 | 10.0 | 0.00 | 0.00 | 0.00 | 85 | 1005.8 |
| 20260505122704 | 71 | 186 | 6.0 | 10.0 | 0.00 | 0.00 | 0.00 | 85 | 1005.9 |
| 20260505122604 | 71 | 183 | 6.0 | 10.0 | 0.00 | 0.00 | 0.00 | 85 | 1005.9 |
| 20260505122505 | 71 | 182 | 6.0 | 10.0 | 0.00 | 0.00 | 0.00 | 85 | 1005.8 |
| 20260505122404 | 71 | 181 | 6.0 | 10.0 | 0.00 | 0.00 | 0.00 | 85 | 1005.9 |
| 20260505122306 | 71 | 178 | 6.0 | 10.0 | 0.00 | 0.00 | 0.00 | 85 | 1005.9 |
| 20260505122205 | 71 | 177 | 6.0 | 10.0 | 0.00 | 0.00 | 0.00 | 85 | 1005.8 |
| 20260505122105 | 71 | 177 | 6.0 | 10.0 | 0.00 | 0.00 | 0.00 | 85 | 1005.8 |
| 20260505121905 | 71 | 179 | 5.0 | 10.0 | 0.00 | 0.00 | 0.00 | 85 | 1005.7 |
| 20260505121804 | 71 | 178 | 5.0 | 9.0 | 0.00 | 0.00 | 0.00 | 85 | 1005.7 |
| 20260505121604 | 71 | 176 | 5.0 | 8.0 | 0.00 | 0.00 | 0.00 | 85 | 1005.7 |
| 20260505121504 | 71 | 177 | 5.0 | 8.0 | 0.00 | 0.00 | 0.00 | 85 | 1005.6 |
| 20260505121405 | 71 | 179 | 5.0 | 9.0 | 0.00 | 0.00 | 0.00 | 85 | 1005.6 |
| 20260505121304 | 71 | 178 | 5.0 | 9.0 | 0.00 | 0.00 | 0.00 | 85 | 1005.6 |
| 20260505121205 | 71 | 177 | 5.0 | 9.0 | 0.00 | 0.00 | 0.00 | 85 | 1005.6 |
| 20260505121004 | 71 | 175 | 6.0 | 9.0 | 0.00 | 0.00 | 0.00 | 85 | 1005.6 |
| 20260505120904 | 71 | 175 | 6.0 | 9.0 | 0.00 | 0.00 | 0.00 | 85 | 1005.6 |
| 20260505120805 | 71 | 174 | 6.0 | 9.0 | 0.00 | 0.00 | 0.00 | 85 | 1005.6 |
| 20260505120704 | 71 | 173 | 6.0 | 10.0 | 0.00 | 0.00 | 0.00 | 85 | 1005.6 |
| 20260505120604 | 71 | 173 | 6.0 | 10.0 | 0.00 | 0.00 | 0.00 | 85 | 1005.6 |
| 20260505120504 | 71 | 172 | 6.0 | 10.0 | 0.00 | 0.00 | 0.00 | 85 | 1005.6 |
| 20260505120405 | 71 | 171 | 6.0 | 10.0 | 0.00 | 0.00 | 0.00 | 85 | 1005.6 |
| 20260505120304 | 71 | 170 | 6.0 | 10.0 | 0.00 | 0.00 | 0.00 | 85 | 1005.5 |
| 20260505120105 | 71 | 169 | 6.0 | 10.0 | 0.00 | 0.00 | 0.00 | 85 | 1005.6 |
| 20260505120005 | 71 | 170 | 6.0 | 10.0 | 0.00 | 0.00 | 0.00 | 85 | 1005.5 |
| 20260505115905 | 71 | 169 | 6.0 | 10.0 | 0.00 | 0.00 | 0.00 | 85 | 1005.5 |
| 20260505115804 | 71 | 171 | 6.0 | 11.0 | 0.00 | 0.00 | 0.00 | 85 | 1005.5 |
| 20260505115705 | 71 | 172 | 6.0 | 11.0 | 0.00 | 0.00 | 0.00 | 85 | 1005.5 |
| 20260505115604 | 71 | 174 | 6.0 | 11.0 | 0.00 | 0.00 | 0.00 | 85 | 1005.4 |
| 20260505115305 | 71 | 175 | 5.0 | 11.0 | 0.00 | 0.00 | 0.00 | 85 | 1005.4 |
| 20260505115204 | 71 | 176 | 5.0 | 11.0 | 0.00 | 0.00 | 0.00 | 85 | 1005.3 |
| 20260505115104 | 71 | 177 | 5.0 | 11.0 | 0.00 | 0.00 | 0.00 | 85 | 1005.3 |
| 20260505115005 | 71 | 176 | 6.0 | 11.0 | 0.00 | 0.00 | 0.00 | 85 | 1005.3 |
| 20260505114905 | 71 | 177 | 6.0 | 11.0 | 0.00 | 0.00 | 0.00 | 85 | 1005.4 |
| 20260505114804 | 71 | 176 | 6.0 | 9.0 | 0.00 | 0.00 | 0.00 | 85 | 1005.4 |
| 20260505114704 | 71 | 175 | 6.0 | 11.0 | 0.00 | 0.00 | 0.00 | 85 | 1005.4 |
| 20260505114605 | 71 | 174 | 6.0 | 11.0 | 0.00 | 0.00 | 0.00 | 85 | 1005.5 |
| 20260505114504 | 71 | 175 | 6.0 | 11.0 | 0.00 | 0.00 | 0.00 | 85 | 1005.5 |
| 20260505114403 | 71 | 175 | 6.0 | 12.0 | 0.00 | 0.00 | 0.00 | 85 | 1005.6 |
| 20260505114304 | 71 | 177 | 7.0 | 12.0 | 0.00 | 0.00 | 0.00 | 85 | 1005.6 |
| 20260505114105 | 71 | 176 | 6.0 | 12.0 | 0.00 | 0.00 | 0.00 | 85 | 1005.6 |
| 20260505114005 | 71 | 178 | 7.0 | 12.0 | 0.00 | 0.00 | 0.00 | 85 | 1005.6 |
| 20260505113904 | 70 | 177 | 7.0 | 12.0 | 0.00 | 0.00 | 0.00 | 85 | 1005.6 |
| 20260505113804 | 70 | 176 | 7.0 | 12.0 | 0.00 | 0.00 | 0.00 | 85 | 1005.5 |
| 20260505113704 | 70 | 177 | 7.0 | 12.0 | 0.00 | 0.00 | 0.00 | 85 | 1005.5 |
| 20260505113604 | 70 | 176 | 7.0 | 12.0 | 0.00 | 0.00 | 0.00 | 85 | 1005.5 |
| 20260505113405 | 70 | 176 | 7.0 | 11.0 | 0.00 | 0.00 | 0.00 | 85 | 1005.5 |
| 20260505113305 | 70 | 174 | 7.0 | 11.0 | 0.00 | 0.00 | 0.00 | 85 | 1005.5 |
| 20260505113204 | 70 | 172 | 7.0 | 11.0 | 0.00 | 0.00 | 0.00 | 85 | 1005.4 |
| 20260505113105 | 70 | 173 | 7.0 | 11.0 | 0.00 | 0.00 | 0.00 | 85 | 1005.4 |
| 20260505113004 | 70 | 172 | 6.0 | 11.0 | 0.00 | 0.00 | 0.00 | 85 | 1005.4 |
| 20260505112804 | 70 | 174 | 6.0 | 11.0 | 0.00 | 0.00 | 0.00 | 85 | 1005.3 |
| 20260505112704 | 70 | 174 | 6.0 | 11.0 | 0.00 | 0.00 | 0.00 | 85 | 1005.3 |
| 20260505112604 | 70 | 174 | 6.0 | 9.0 | 0.00 | 0.00 | 0.00 | 85 | 1005.3 |
| 20260505112504 | 70 | 174 | 5.0 | 9.0 | 0.00 | 0.00 | 0.00 | 85 | 1005.3 |
| 20260505112404 | 70 | 176 | 5.0 | 9.0 | 0.00 | 0.00 | 0.00 | 85 | 1005.3 |
| 20260505112305 | 71 | 177 | 6.0 | 9.0 | 0.00 | 0.00 | 0.00 | 85 | 1005.3 |
| 20260505112204 | 71 | 178 | 6.0 | 9.0 | 0.00 | 0.00 | 0.00 | 85 | 1005.4 |
| 20260505112105 | 71 | 177 | 6.0 | 9.0 | 0.00 | 0.00 | 0.00 | 85 | 1005.4 |
| 20260505112004 | 71 | 178 | 6.0 | 9.0 | 0.00 | 0.00 | 0.00 | 85 | 1005.5 |
| 20260505111905 | 70 | 179 | 6.0 | 9.0 | 0.00 | 0.00 | 0.00 | 85 | 1005.5 |
| 20260505111804 | 70 | 181 | 6.0 | 9.0 | 0.00 | 0.00 | 0.00 | 85 | 1005.5 |
| 20260505111604 | 71 | 183 | 6.0 | 10.0 | 0.00 | 0.00 | 0.00 | 85 | 1005.5 |
| 20260505111505 | 71 | 183 | 6.0 | 11.0 | 0.00 | 0.00 | 0.00 | 85 | 1005.5 |
| 20260505111405 | 71 | 182 | 6.0 | 11.0 | 0.00 | 0.00 | 0.00 | 85 | 1005.4 |
| 20260505111305 | 71 | 183 | 6.0 | 11.0 | 0.00 | 0.00 | 0.00 | 85 | 1005.4 |
| 20260505111204 | 71 | 185 | 6.0 | 11.0 | 0.00 | 0.00 | 0.00 | 85 | 1005.4 |
| 20260505111105 | 71 | 186 | 6.0 | 11.0 | 0.00 | 0.00 | 0.00 | 85 | 1005.4 |
| 20260505111004 | 71 | 185 | 6.0 | 11.0 | 0.00 | 0.00 | 0.00 | 85 | 1005.5 |
| 20260505110804 | 71 | 183 | 7.0 | 11.0 | 0.00 | 0.00 | 0.00 | 85 | 1005.7 |
| 20260505110705 | 71 | 184 | 7.0 | 14.0 | 0.00 | 0.00 | 0.00 | 85 | 1005.7 |
| 20260505110604 | 71 | 184 | 7.0 | 14.0 | 0.00 | 0.00 | 0.00 | 85 | 1005.6 |
| 20260505110505 | 71 | 183 | 7.0 | 14.0 | 0.00 | 0.00 | 0.00 | 85 | 1005.6 |
| 20260505110404 | 71 | 182 | 8.0 | 14.0 | 0.00 | 0.00 | 0.00 | 85 | 1005.6 |
| 20260505110204 | 71 | 179 | 8.0 | 14.0 | 0.00 | 0.00 | 0.00 | 85 | 1005.6 |
| 20260505102204 | 71 | 188 | 9.0 | 16.0 | 0.00 | 0.00 | 0.00 | 84 | 1005.3 |
| 20260505102104 | 71 | 187 | 8.0 | 16.0 | 0.00 | 0.00 | 0.00 | 84 | 1005.3 |
| 20260505102004 | 71 | 187 | 8.0 | 16.0 | 0.00 | 0.00 | 0.00 | 84 | 1005.3 |
| 20260505101905 | 71 | 186 | 8.0 | 16.0 | 0.00 | 0.00 | 0.00 | 84 | 1005.3 |
| 20260505101803 | 71 | 186 | 8.0 | 16.0 | 0.00 | 0.00 | 0.00 | 84 | 1005.3 |
| 20260505101704 | 71 | 186 | 8.0 | 16.0 | 0.00 | 0.00 | 0.00 | 84 | 1005.3 |
| 20260505101505 | 71 | 187 | 8.0 | 16.0 | 0.00 | 0.00 | 0.00 | 84 | 1005.3 |
| 20260505101404 | 71 | 188 | 8.0 | 13.0 | 0.00 | 0.00 | 0.00 | 84 | 1005.3 |
| 20260505101204 | 71 | 190 | 8.0 | 13.0 | 0.00 | 0.00 | 0.00 | 84 | 1005.3 |
| 20260505101104 | 71 | 191 | 9.0 | 14.0 | 0.00 | 0.00 | 0.00 | 84 | 1005.3 |
| 20260505101004 | 71 | 189 | 9.0 | 16.0 | 0.00 | 0.00 | 0.00 | 84 | 1005.4 |
| 20260505100804 | 71 | 191 | 9.0 | 16.0 | 0.00 | 0.00 | 0.00 | 84 | 1005.4 |
| 20260505100505 | 71 | 189 | 10.0 | 20.0 | 0.00 | 0.00 | 0.00 | 83 | 1005.4 |
| 20260505100404 | 71 | 189 | 10.0 | 20.0 | 0.00 | 0.00 | 0.00 | 83 | 1005.4 |
| 20260505100305 | 71 | 188 | 10.0 | 20.0 | 0.00 | 0.00 | 0.00 | 83 | 1005.4 |
| 20260505100204 | 71 | 188 | 10.0 | 20.0 | 0.00 | 0.00 | 0.00 | 83 | 1005.4 |
| 20260505100106 | 71 | 188 | 10.0 | 20.0 | 0.00 | 0.00 | 0.00 | 83 | 1005.4 |
| 20260505100004 | 71 | 189 | 10.0 | 20.0 | 0.00 | 0.00 | 0.00 | 83 | 1005.4 |
| 20260505095804 | 71 | 189 | 10.0 | 20.0 | 0.00 | 0.00 | 0.00 | 83 | 1005.5 |
| 20260505095704 | 71 | 190 | 10.0 | 18.0 | 0.00 | 0.00 | 0.00 | 83 | 1005.5 |
| 20260505095604 | 71 | 190 | 10.0 | 18.0 | 0.00 | 0.00 | 0.00 | 83 | 1005.6 |
| 20260505095404 | 71 | 191 | 10.0 | 18.0 | 0.00 | 0.00 | 0.00 | 83 | 1005.6 |
| 20260505095305 | 71 | 191 | 10.0 | 18.0 | 0.00 | 0.00 | 0.00 | 83 | 1005.6 |
| 20260505095104 | 71 | 192 | 10.0 | 17.0 | 0.00 | 0.00 | 0.00 | 83 | 1005.5 |
| 20260505095004 | 71 | 192 | 10.0 | 17.0 | 0.00 | 0.00 | 0.00 | 83 | 1005.5 |
| 20260505094905 | 71 | 192 | 10.0 | 17.0 | 0.00 | 0.00 | 0.00 | 83 | 1005.5 |
| 20260505094804 | 71 | 192 | 10.0 | 17.0 | 0.00 | 0.00 | 0.00 | 83 | 1005.4 |
| 20260505094704 | 71 | 190 | 10.0 | 17.0 | 0.00 | 0.00 | 0.00 | 83 | 1005.4 |
| 20260505094604 | 71 | 191 | 11.0 | 18.0 | 0.00 | 0.00 | 0.00 | 83 | 1005.4 |
| 20260505094504 | 71 | 191 | 11.0 | 18.0 | 0.00 | 0.00 | 0.00 | 83 | 1005.4 |
| 20260505094403 | 71 | 189 | 10.0 | 18.0 | 0.00 | 0.00 | 0.00 | 83 | 1005.4 |
| 20260505094304 | 71 | 189 | 10.0 | 18.0 | 0.00 | 0.00 | 0.00 | 83 | 1005.4 |
| 20260505094204 | 71 | 190 | 10.0 | 18.0 | 0.00 | 0.00 | 0.00 | 83 | 1005.4 |
| 20260505094104 | 71 | 189 | 10.0 | 18.0 | 0.00 | 0.00 | 0.00 | 83 | 1005.4 |
| 20260505094004 | 71 | 189 | 10.0 | 18.0 | 0.00 | 0.00 | 0.00 | 83 | 1005.4 |
| 20260505093904 | 71 | 189 | 10.0 | 18.0 | 0.00 | 0.00 | 0.00 | 83 | 1005.4 |
| 20260505093704 | 71 | 190 | 10.0 | 18.0 | 0.00 | 0.00 | 0.00 | 83 | 1005.5 |
| 20260505093604 | 71 | 190 | 10.0 | 17.0 | 0.00 | 0.00 | 0.00 | 83 | 1005.4 |
| 20260505093404 | 71 | 191 | 10.0 | 17.0 | 0.00 | 0.00 | 0.00 | 83 | 1005.4 |
| 20260505093204 | 71 | 190 | 10.0 | 17.0 | 0.00 | 0.00 | 0.00 | 83 | 1005.5 |
| 20260505093004 | 71 | 191 | 10.0 | 17.0 | 0.00 | 0.00 | 0.00 | 83 | 1005.5 |
| 20260505092904 | 71 | 191 | 10.0 | 17.0 | 0.00 | 0.00 | 0.00 | 83 | 1005.5 |
| 20260505092704 | 71 | 191 | 9.0 | 17.0 | 0.00 | 0.00 | 0.00 | 83 | 1005.4 |
| 20260505092604 | 71 | 190 | 10.0 | 17.0 | 0.00 | 0.00 | 0.00 | 83 | 1005.5 |
| 20260505092504 | 71 | 189 | 10.0 | 17.0 | 0.00 | 0.00 | 0.00 | 83 | 1005.5 |
| 20260505092305 | 71 | 190 | 10.0 | 21.0 | 0.00 | 0.00 | 0.00 | 83 | 1005.4 |
| 20260505092204 | 71 | 190 | 10.0 | 21.0 | 0.00 | 0.00 | 0.00 | 83 | 1005.5 |
| 20260505092104 | 71 | 189 | 10.0 | 21.0 | 0.00 | 0.00 | 0.00 | 83 | 1005.5 |
| 20260505092004 | 71 | 190 | 11.0 | 21.0 | 0.00 | 0.00 | 0.00 | 83 | 1005.5 |
| 20260505091804 | 71 | 190 | 10.0 | 21.0 | 0.00 | 0.00 | 0.00 | 83 | 1005.6 |
| 20260505091705 | 71 | 190 | 11.0 | 21.0 | 0.00 | 0.00 | 0.00 | 83 | 1005.7 |
| 20260505091604 | 71 | 191 | 11.0 | 21.0 | 0.00 | 0.00 | 0.00 | 83 | 1005.7 |
| 20260505091505 | 71 | 191 | 11.0 | 21.0 | 0.00 | 0.00 | 0.00 | 83 | 1005.8 |
| 20260505091404 | 71 | 191 | 10.0 | 18.0 | 0.00 | 0.00 | 0.00 | 83 | 1005.8 |
| 20260505091306 | 71 | 192 | 11.0 | 18.0 | 0.00 | 0.00 | 0.00 | 83 | 1005.8 |
| 20260505091204 | 71 | 193 | 11.0 | 18.0 | 0.00 | 0.00 | 0.00 | 83 | 1005.8 |
| 20260505091004 | 71 | 195 | 9.0 | 18.0 | 0.00 | 0.00 | 0.00 | 83 | 1005.8 |
| 20260505090904 | 71 | 195 | 9.0 | 18.0 | 0.00 | 0.00 | 0.00 | 83 | 1005.7 |
| 20260505090704 | 71 | 196 | 8.0 | 18.0 | 0.00 | 0.00 | 0.00 | 83 | 1005.6 |
| 20260505090505 | 71 | 199 | 8.0 | 15.0 | 0.00 | 0.00 | 0.00 | 83 | 1005.6 |
| 20260505090404 | 71 | 200 | 9.0 | 15.0 | 0.00 | 0.00 | 0.00 | 83 | 1005.7 |
| 20260505090305 | 71 | 197 | 8.0 | 15.0 | 0.00 | 0.00 | 0.00 | 83 | 1005.8 |
| 20260505090204 | 71 | 196 | 8.0 | 15.0 | 0.00 | 0.00 | 0.00 | 83 | 1005.8 |
| 20260505090004 | 71 | 195 | 9.0 | 16.0 | 0.00 | 0.00 | 0.00 | 83 | 1005.8 |
| 20260505085904 | 71 | 195 | 9.0 | 16.0 | 0.00 | 0.00 | 0.00 | 83 | 1005.8 |
| 20260505085803 | 71 | 193 | 9.0 | 16.0 | 0.00 | 0.00 | 0.00 | 83 | 1005.7 |
| 20260505085704 | 71 | 195 | 9.0 | 16.0 | 0.00 | 0.00 | 0.00 | 83 | 1005.7 |
| 20260505085504 | 71 | 195 | 9.0 | 19.0 | 0.00 | 0.00 | 0.00 | 83 | 1005.8 |
| 20260505085404 | 71 | 195 | 9.0 | 19.0 | 0.00 | 0.00 | 0.00 | 83 | 1005.8 |
| 20260505085305 | 71 | 197 | 9.0 | 19.0 | 0.00 | 0.00 | 0.00 | 83 | 1005.8 |
| 20260505085204 | 71 | 196 | 9.0 | 19.0 | 0.00 | 0.00 | 0.00 | 83 | 1005.8 |
| 20260505085105 | 71 | 196 | 9.0 | 19.0 | 0.00 | 0.00 | 0.00 | 83 | 1005.8 |
| 20260505085004 | 71 | 195 | 10.0 | 19.0 | 0.00 | 0.00 | 0.00 | 83 | 1005.9 |
| 20260505084904 | 71 | 195 | 10.0 | 19.0 | 0.00 | 0.00 | 0.00 | 83 | 1005.9 |
| 20260505084803 | 71 | 196 | 10.0 | 19.0 | 0.00 | 0.00 | 0.00 | 83 | 1006.0 |
| 20260505084704 | 71 | 196 | 10.0 | 19.0 | 0.00 | 0.00 | 0.00 | 83 | 1006.0 |
| 20260505084604 | 71 | 196 | 9.0 | 19.0 | 0.00 | 0.00 | 0.00 | 83 | 1005.9 |
| 20260505084504 | 71 | 196 | 9.0 | 19.0 | 0.00 | 0.00 | 0.00 | 83 | 1005.9 |
| 20260505084404 | 71 | 195 | 9.0 | 16.0 | 0.00 | 0.00 | 0.00 | 83 | 1005.9 |
| 20260505084305 | 71 | 195 | 9.0 | 16.0 | 0.00 | 0.00 | 0.00 | 83 | 1005.9 |
| 20260505084104 | 71 | 195 | 9.0 | 16.0 | 0.00 | 0.00 | 0.00 | 83 | 1005.9 |
| 20260505084004 | 71 | 196 | 9.0 | 17.0 | 0.00 | 0.00 | 0.00 | 83 | 1005.8 |
| 20260505083905 | 71 | 197 | 9.0 | 17.0 | 0.00 | 0.00 | 0.00 | 83 | 1005.8 |
| 20260505083804 | 71 | 195 | 9.0 | 17.0 | 0.00 | 0.00 | 0.00 | 83 | 1005.9 |
| 20260505083704 | 71 | 195 | 8.0 | 17.0 | 0.00 | 0.00 | 0.00 | 83 | 1005.9 |
| 20260505083604 | 71 | 194 | 9.0 | 17.0 | 0.00 | 0.00 | 0.00 | 83 | 1005.9 |
| 20260505083504 | 71 | 193 | 9.0 | 17.0 | 0.00 | 0.00 | 0.00 | 83 | 1006.0 |
| 20260505083403 | 71 | 192 | 9.0 | 17.0 | 0.00 | 0.00 | 0.00 | 83 | 1006.0 |
| 20260505083204 | 71 | 190 | 9.0 | 17.0 | 0.00 | 0.00 | 0.00 | 83 | 1006.1 |
| 20260505083105 | 71 | 189 | 9.0 | 17.0 | 0.00 | 0.00 | 0.00 | 83 | 1006.1 |
| 20260505083004 | 71 | 188 | 9.0 | 16.0 | 0.00 | 0.00 | 0.00 | 83 | 1006.2 |
| 20260505082905 | 71 | 186 | 9.0 | 16.0 | 0.00 | 0.00 | 0.00 | 83 | 1006.1 |
| 20260505082804 | 71 | 186 | 9.0 | 16.0 | 0.00 | 0.00 | 0.00 | 83 | 1006.1 |
| 20260505082704 | 71 | 186 | 9.0 | 16.0 | 0.00 | 0.00 | 0.00 | 83 | 1006.0 |
| 20260505082604 | 71 | 185 | 9.0 | 16.0 | 0.00 | 0.00 | 0.00 | 83 | 1006.0 |
| 20260505082505 | 71 | 186 | 9.0 | 16.0 | 0.00 | 0.00 | 0.00 | 83 | 1006.1 |
| 20260505082404 | 71 | 186 | 9.0 | 16.0 | 0.00 | 0.00 | 0.00 | 83 | 1006.1 |
| 20260505082304 | 71 | 188 | 9.0 | 16.0 | 0.00 | 0.00 | 0.00 | 83 | 1006.2 |
| 20260505082204 | 71 | 188 | 9.0 | 15.0 | 0.00 | 0.00 | 0.00 | 83 | 1006.1 |
| 20260505082104 | 71 | 190 | 9.0 | 15.0 | 0.00 | 0.00 | 0.00 | 83 | 1006.2 |
| 20260505082004 | 71 | 190 | 9.0 | 15.0 | 0.00 | 0.00 | 0.00 | 83 | 1006.2 |
| 20260505081904 | 71 | 190 | 9.0 | 15.0 | 0.00 | 0.00 | 0.00 | 83 | 1006.2 |
| 20260505081603 | 71 | 192 | 9.0 | 15.0 | 0.00 | 0.00 | 0.00 | 83 | 1006.4 |
| 20260505081204 | 71 | 191 | 10.0 | 16.0 | 0.00 | 0.00 | 0.00 | 83 | 1006.3 |
| 20260505081104 | 71 | 190 | 10.0 | 16.0 | 0.00 | 0.00 | 0.00 | 83 | 1006.3 |
| 20260505081003 | 71 | 190 | 10.0 | 16.0 | 0.00 | 0.00 | 0.00 | 83 | 1006.3 |
| 20260505080804 | 71 | 190 | 10.0 | 16.0 | 0.00 | 0.00 | 0.00 | 82 | 1006.4 |
| 20260505080704 | 71 | 191 | 10.0 | 16.0 | 0.00 | 0.00 | 0.00 | 83 | 1006.4 |
| 20260505080604 | 71 | 190 | 10.0 | 16.0 | 0.00 | 0.00 | 0.00 | 82 | 1006.4 |
| 20260505080404 | 71 | 188 | 9.0 | 17.0 | 0.00 | 0.00 | 0.00 | 82 | 1006.4 |
| 20260505080204 | 71 | 189 | 9.0 | 17.0 | 0.00 | 0.00 | 0.00 | 82 | 1006.4 |
| 20260505080104 | 71 | 189 | 9.0 | 17.0 | 0.00 | 0.00 | 0.00 | 82 | 1006.4 |
| 20260505080004 | 71 | 189 | 9.0 | 17.0 | 0.00 | 0.00 | 0.00 | 82 | 1006.4 |
| 20260505075904 | 71 | 189 | 9.0 | 17.0 | 0.00 | 0.00 | 0.00 | 82 | 1006.4 |
| 20260505075804 | 71 | 190 | 8.0 | 17.0 | 0.00 | 0.00 | 0.00 | 82 | 1006.4 |
| 20260505075704 | 71 | 190 | 8.0 | 17.0 | 0.00 | 0.00 | 0.00 | 82 | 1006.3 |
| 20260505075604 | 71 | 190 | 8.0 | 17.0 | 0.00 | 0.00 | 0.00 | 82 | 1006.4 |
| 20260505075504 | 71 | 190 | 8.0 | 17.0 | 0.00 | 0.00 | 0.00 | 82 | 1006.4 |
| 20260505075404 | 71 | 190 | 9.0 | 17.0 | 0.00 | 0.00 | 0.00 | 82 | 1006.4 |
| 20260505075304 | 71 | 189 | 9.0 | 17.0 | 0.00 | 0.00 | 0.00 | 82 | 1006.4 |
| 20260505075204 | 71 | 189 | 9.0 | 17.0 | 0.00 | 0.00 | 0.00 | 82 | 1006.4 |
| 20260505075104 | 71 | 189 | 9.0 | 17.0 | 0.00 | 0.00 | 0.00 | 82 | 1006.4 |
| 20260505075005 | 71 | 190 | 9.0 | 17.0 | 0.00 | 0.00 | 0.00 | 82 | 1006.5 |
| 20260505074904 | 71 | 190 | 9.0 | 17.0 | 0.00 | 0.00 | 0.00 | 82 | 1006.5 |
| 20260505074803 | 71 | 190 | 8.0 | 17.0 | 0.00 | 0.00 | 0.00 | 82 | 1006.6 |
| 20260505074704 | 71 | 188 | 8.0 | 17.0 | 0.00 | 0.00 | 0.00 | 82 | 1006.6 |
| 20260505074603 | 71 | 188 | 8.0 | 17.0 | 0.00 | 0.00 | 0.00 | 82 | 1006.6 |
| 20260505074504 | 71 | 188 | 8.0 | 14.0 | 0.00 | 0.00 | 0.00 | 82 | 1006.6 |
| 20260505074205 | 71 | 187 | 9.0 | 18.0 | 0.00 | 0.00 | 0.00 | 82 | 1006.6 |
| 20260505074104 | 71 | 186 | 9.0 | 18.0 | 0.00 | 0.00 | 0.00 | 82 | 1006.6 |
| 20260505074004 | 71 | 184 | 9.0 | 18.0 | 0.00 | 0.00 | 0.00 | 82 | 1006.6 |
| 20260505073704 | 71 | 186 | 10.0 | 18.0 | 0.00 | 0.00 | 0.00 | 82 | 1006.6 |
| 20260505073604 | 71 | 185 | 10.0 | 18.0 | 0.00 | 0.00 | 0.00 | 82 | 1006.6 |
| 20260505073504 | 71 | 185 | 10.0 | 18.0 | 0.00 | 0.00 | 0.00 | 82 | 1006.6 |
| 20260505073405 | 71 | 184 | 11.0 | 20.0 | 0.00 | 0.00 | 0.00 | 82 | 1006.6 |
| 20260505073304 | 71 | 186 | 11.0 | 20.0 | 0.00 | 0.00 | 0.00 | 82 | 1006.7 |
| 20260505073204 | 71 | 185 | 11.0 | 20.0 | 0.00 | 0.00 | 0.00 | 82 | 1006.7 |
| 20260505073104 | 71 | 186 | 11.0 | 20.0 | 0.00 | 0.00 | 0.00 | 82 | 1006.7 |
| 20260505073004 | 71 | 186 | 11.0 | 20.0 | 0.00 | 0.00 | 0.00 | 82 | 1006.6 |
| 20260505072904 | 71 | 186 | 11.0 | 20.0 | 0.00 | 0.00 | 0.00 | 82 | 1006.7 |
| 20260505072804 | 71 | 186 | 11.0 | 20.0 | 0.00 | 0.00 | 0.00 | 82 | 1006.7 |
| 20260505072704 | 71 | 184 | 11.0 | 20.0 | 0.00 | 0.00 | 0.00 | 82 | 1006.8 |
| 20260505072604 | 71 | 186 | 10.0 | 20.0 | 0.00 | 0.00 | 0.00 | 82 | 1006.8 |
| 20260505072505 | 71 | 187 | 10.0 | 20.0 | 0.00 | 0.00 | 0.00 | 82 | 1006.8 |
| 20260505072404 | 71 | 187 | 10.0 | 20.0 | 0.00 | 0.00 | 0.00 | 82 | 1006.7 |
| 20260505072305 | 71 | 186 | 10.0 | 18.0 | 0.00 | 0.00 | 0.00 | 82 | 1006.7 |
| 20260505072204 | 71 | 186 | 10.0 | 18.0 | 0.00 | 0.00 | 0.00 | 82 | 1006.8 |
| 20260505072104 | 72 | 186 | 10.0 | 18.0 | 0.00 | 0.00 | 0.00 | 82 | 1006.8 |
| 20260505072004 | 71 | 186 | 10.0 | 18.0 | 0.00 | 0.00 | 0.00 | 82 | 1006.8 |
| 20260505071904 | 72 | 185 | 10.0 | 18.0 | 0.00 | 0.00 | 0.00 | 82 | 1006.9 |
| 20260505071805 | 72 | 187 | 11.0 | 18.0 | 0.00 | 0.00 | 0.00 | 82 | 1006.9 |
| 20260505071604 | 72 | 187 | 11.0 | 18.0 | 0.00 | 0.00 | 0.00 | 82 | 1007.0 |
| 20260505071504 | 72 | 187 | 11.0 | 18.0 | 0.00 | 0.00 | 0.00 | 82 | 1006.9 |
| 20260505071404 | 72 | 189 | 11.0 | 18.0 | 0.00 | 0.00 | 0.00 | 82 | 1006.9 |
| 20260505071304 | 72 | 189 | 11.0 | 18.0 | 0.00 | 0.00 | 0.00 | 81 | 1006.9 |
| 20260505071204 | 72 | 190 | 11.0 | 18.0 | 0.00 | 0.00 | 0.00 | 81 | 1006.9 |
| 20260505071104 | 72 | 188 | 11.0 | 18.0 | 0.00 | 0.00 | 0.00 | 81 | 1006.8 |
| 20260505071003 | 72 | 188 | 11.0 | 18.0 | 0.00 | 0.00 | 0.00 | 81 | 1006.9 |
| 20260505070904 | 72 | 190 | 10.0 | 18.0 | 0.00 | 0.00 | 0.00 | 81 | 1006.9 |
| 20260505070803 | 72 | 189 | 10.0 | 17.0 | 0.00 | 0.00 | 0.00 | 81 | 1006.9 |
| 20260505070704 | 72 | 189 | 10.0 | 17.0 | 0.00 | 0.00 | 0.00 | 81 | 1007.0 |
| 20260505070504 | 72 | 189 | 9.0 | 17.0 | 0.00 | 0.00 | 0.00 | 81 | 1007.1 |
| 20260505070304 | 72 | 188 | 9.0 | 17.0 | 0.00 | 0.00 | 0.00 | 81 | 1007.0 |
| 20260505070204 | 72 | 189 | 9.0 | 17.0 | 0.00 | 0.00 | 0.00 | 81 | 1007.0 |
| 20260505070104 | 72 | 192 | 9.0 | 15.0 | 0.00 | 0.00 | 0.00 | 81 | 1007.1 |
| 20260505070004 | 72 | 191 | 9.0 | 15.0 | 0.00 | 0.00 | 0.00 | 81 | 1007.1 |
| 20260505065805 | 72 | 190 | 9.0 | 19.0 | 0.00 | 0.00 | 0.00 | 81 | 1007.1 |
| 20260505065504 | 72 | 189 | 10.0 | 19.0 | 0.00 | 0.00 | 0.00 | 81 | 1007.1 |
| 20260505065404 | 72 | 189 | 10.0 | 19.0 | 0.00 | 0.00 | 0.00 | 81 | 1007.2 |
| 20260505065204 | 72 | 189 | 10.0 | 19.0 | 0.00 | 0.00 | 0.00 | 81 | 1007.1 |
| 20260505065103 | 72 | 188 | 10.0 | 19.0 | 0.00 | 0.00 | 0.00 | 81 | 1007.1 |
| 20260505064903 | 72 | 189 | 10.0 | 21.0 | 0.00 | 0.00 | 0.00 | 81 | 1007.1 |
| 20260505064804 | 72 | 190 | 10.0 | 21.0 | 0.00 | 0.00 | 0.00 | 81 | 1007.1 |
| 20260505064705 | 72 | 190 | 10.0 | 21.0 | 0.00 | 0.00 | 0.00 | 81 | 1007.1 |
| 20260505064604 | 72 | 190 | 10.0 | 21.0 | 0.00 | 0.00 | 0.00 | 81 | 1007.2 |
| 20260505064504 | 72 | 189 | 10.0 | 21.0 | 0.00 | 0.00 | 0.00 | 81 | 1007.2 |
| 20260505064404 | 72 | 186 | 10.0 | 21.0 | 0.00 | 0.00 | 0.00 | 81 | 1007.2 |
| 20260505064304 | 72 | 185 | 10.0 | 21.0 | 0.00 | 0.00 | 0.00 | 81 | 1007.2 |
| 20260505064204 | 72 | 183 | 10.0 | 21.0 | 0.00 | 0.00 | 0.00 | 81 | 1007.2 |
| 20260505064103 | 72 | 182 | 10.0 | 21.0 | 0.00 | 0.00 | 0.00 | 81 | 1007.2 |
| 20260505064004 | 72 | 183 | 10.0 | 21.0 | 0.00 | 0.00 | 0.00 | 81 | 1007.2 |
| 20260505063804 | 72 | 179 | 10.0 | 18.0 | 0.00 | 0.00 | 0.00 | 81 | 1007.1 |
| 20260505063705 | 72 | 179 | 10.0 | 18.0 | 0.00 | 0.00 | 0.00 | 81 | 1007.1 |
| 20260505063604 | 72 | 179 | 10.0 | 18.0 | 0.00 | 0.00 | 0.00 | 81 | 1007.1 |
| 20260505063505 | 72 | 179 | 9.0 | 17.0 | 0.00 | 0.00 | 0.00 | 81 | 1007.1 |
| 20260505063404 | 72 | 181 | 9.0 | 17.0 | 0.00 | 0.00 | 0.00 | 81 | 1007.1 |
| 20260505063303 | 72 | 183 | 9.0 | 17.0 | 0.00 | 0.00 | 0.00 | 81 | 1007.1 |
| 20260505063204 | 72 | 184 | 9.0 | 17.0 | 0.00 | 0.00 | 0.00 | 81 | 1007.2 |
| 20260505063104 | 72 | 184 | 9.0 | 17.0 | 0.00 | 0.00 | 0.00 | 81 | 1007.1 |
| 20260505062904 | 72 | 184 | 9.0 | 16.0 | 0.00 | 0.00 | 0.00 | 81 | 1007.2 |
| 20260505062803 | 72 | 185 | 10.0 | 16.0 | 0.00 | 0.00 | 0.00 | 81 | 1007.1 |
| 20260505062704 | 72 | 188 | 10.0 | 19.0 | 0.00 | 0.00 | 0.00 | 81 | 1007.2 |
| 20260505062604 | 72 | 188 | 10.0 | 19.0 | 0.00 | 0.00 | 0.00 | 81 | 1007.2 |
| 20260505062504 | 72 | 188 | 10.0 | 19.0 | 0.00 | 0.00 | 0.00 | 81 | 1007.3 |
| 20260505062404 | 72 | 188 | 10.0 | 19.0 | 0.00 | 0.00 | 0.00 | 81 | 1007.2 |
| 20260505062304 | 72 | 189 | 10.0 | 19.0 | 0.00 | 0.00 | 0.00 | 81 | 1007.3 |
| 20260505062204 | 72 | 189 | 11.0 | 19.0 | 0.00 | 0.00 | 0.00 | 81 | 1007.2 |
| 20260505062004 | 72 | 188 | 11.0 | 19.0 | 0.00 | 0.00 | 0.00 | 81 | 1007.3 |
| 20260505061906 | 72 | 188 | 11.0 | 20.0 | 0.00 | 0.00 | 0.00 | 81 | 1007.3 |
| 20260505061704 | 72 | 186 | 10.0 | 20.0 | 0.00 | 0.00 | 0.00 | 81 | 1007.3 |
| 20260505061605 | 72 | 185 | 10.0 | 20.0 | 0.00 | 0.00 | 0.00 | 81 | 1007.3 |
| 20260505061404 | 72 | 187 | 9.0 | 20.0 | 0.00 | 0.00 | 0.00 | 81 | 1007.3 |
| 20260505061304 | 72 | 187 | 9.0 | 20.0 | 0.00 | 0.00 | 0.00 | 81 | 1007.4 |
| 20260505061104 | 72 | 189 | 9.0 | 20.0 | 0.00 | 0.00 | 0.00 | 81 | 1007.4 |
| 20260505061004 | 72 | 189 | 8.0 | 20.0 | 0.00 | 0.00 | 0.00 | 81 | 1007.4 |
| 20260505060904 | 72 | 190 | 7.0 | 14.0 | 0.00 | 0.00 | 0.00 | 81 | 1007.4 |
| 20260505060804 | 72 | 189 | 7.0 | 14.0 | 0.00 | 0.00 | 0.00 | 81 | 1007.4 |
| 20260505060704 | 72 | 190 | 7.0 | 14.0 | 0.00 | 0.00 | 0.00 | 81 | 1007.4 |
| 20260505060604 | 72 | 190 | 7.0 | 14.0 | 0.00 | 0.00 | 0.00 | 81 | 1007.4 |
| 20260505060304 | 72 | 187 | 8.0 | 14.0 | 0.00 | 0.00 | 0.00 | 81 | 1007.5 |
| 20260505060203 | 72 | 187 | 8.0 | 17.0 | 0.00 | 0.00 | 0.00 | 81 | 1007.4 |
| 20260505060104 | 72 | 188 | 8.0 | 17.0 | 0.00 | 0.00 | 0.00 | 81 | 1007.5 |
| 20260505060004 | 72 | 189 | 8.0 | 17.0 | 0.00 | 0.00 | 0.00 | 81 | 1007.5 |
| 20260505055904 | 72 | 188 | 8.0 | 17.0 | 0.00 | 0.00 | 0.00 | 81 | 1007.5 |
| 20260505055804 | 72 | 188 | 8.0 | 17.0 | 0.00 | 0.00 | 0.00 | 81 | 1007.5 |
| 20260505055604 | 72 | 189 | 9.0 | 17.0 | 0.00 | 0.00 | 0.00 | 81 | 1007.5 |
| 20260505055504 | 72 | 190 | 9.0 | 17.0 | 0.00 | 0.00 | 0.00 | 81 | 1007.5 |
| 20260505055304 | 72 | 190 | 9.0 | 17.0 | 0.00 | 0.00 | 0.00 | 81 | 1007.5 |
| 20260505055203 | 72 | 190 | 9.0 | 17.0 | 0.00 | 0.00 | 0.00 | 81 | 1007.5 |
| 20260505055104 | 72 | 187 | 9.0 | 17.0 | 0.00 | 0.00 | 0.00 | 81 | 1007.4 |
| 20260505055004 | 72 | 188 | 9.0 | 17.0 | 0.00 | 0.00 | 0.00 | 81 | 1007.4 |
| 20260505054704 | 72 | 187 | 9.0 | 17.0 | 0.00 | 0.00 | 0.00 | 81 | 1007.3 |
| 20260505054604 | 72 | 187 | 9.0 | 17.0 | 0.00 | 0.00 | 0.00 | 81 | 1007.3 |
| 20260505054504 | 72 | 185 | 9.0 | 17.0 | 0.00 | 0.00 | 0.00 | 81 | 1007.3 |
| 20260505054304 | 72 | 184 | 9.0 | 17.0 | 0.00 | 0.00 | 0.00 | 81 | 1007.3 |
| 20260505053805 | 72 | 185 | 9.0 | 18.0 | 0.00 | 0.00 | 0.00 | 81 | 1007.3 |
| 20260505053704 | 72 | 184 | 9.0 | 18.0 | 0.00 | 0.00 | 0.00 | 81 | 1007.3 |
| 20260505053604 | 72 | 184 | 9.0 | 18.0 | 0.00 | 0.00 | 0.00 | 81 | 1007.4 |
| 20260505053504 | 72 | 185 | 8.0 | 18.0 | 0.00 | 0.00 | 0.00 | 81 | 1007.4 |
| 20260505053403 | 72 | 184 | 8.0 | 18.0 | 0.00 | 0.00 | 0.00 | 81 | 1007.5 |
| 20260505053304 | 72 | 184 | 8.0 | 18.0 | 0.00 | 0.00 | 0.00 | 81 | 1007.4 |
| 20260505052904 | 72 | 179 | 8.0 | 14.0 | 0.00 | 0.00 | 0.00 | 81 | 1007.5 |
| 20260505052804 | 72 | 178 | 8.0 | 14.0 | 0.00 | 0.00 | 0.00 | 81 | 1007.5 |
| 20260505052603 | 72 | 177 | 8.0 | 14.0 | 0.00 | 0.00 | 0.00 | 81 | 1007.4 |
| 20260505052504 | 72 | 176 | 8.0 | 14.0 | 0.00 | 0.00 | 0.00 | 81 | 1007.3 |
| 20260505052404 | 72 | 177 | 8.0 | 14.0 | 0.00 | 0.00 | 0.00 | 81 | 1007.4 |
| 20260505052104 | 72 | 179 | 8.0 | 14.0 | 0.00 | 0.00 | 0.00 | 81 | 1007.3 |
| 20260505051904 | 72 | 182 | 8.0 | 14.0 | 0.00 | 0.00 | 0.00 | 81 | 1007.3 |
| 20260505051804 | 72 | 181 | 9.0 | 14.0 | 0.00 | 0.00 | 0.00 | 81 | 1007.3 |
| 20260505051604 | 72 | 183 | 9.0 | 14.0 | 0.00 | 0.00 | 0.00 | 81 | 1007.3 |
| 20260505051504 | 72 | 183 | 9.0 | 14.0 | 0.00 | 0.00 | 0.00 | 81 | 1007.2 |
| 20260505051404 | 72 | 182 | 9.0 | 14.0 | 0.00 | 0.00 | 0.00 | 81 | 1007.3 |
| 20260505051304 | 72 | 183 | 9.0 | 14.0 | 0.00 | 0.00 | 0.00 | 80 | 1007.3 |
| 20260505051204 | 72 | 182 | 9.0 | 14.0 | 0.00 | 0.00 | 0.00 | 80 | 1007.2 |
| 20260505051105 | 72 | 183 | 9.0 | 14.0 | 0.00 | 0.00 | 0.00 | 80 | 1007.2 |
| 20260505051004 | 72 | 183 | 9.0 | 14.0 | 0.00 | 0.00 | 0.00 | 80 | 1007.2 |
| 20260505050904 | 72 | 182 | 9.0 | 14.0 | 0.00 | 0.00 | 0.00 | 80 | 1007.2 |
| 20260505050804 | 72 | 182 | 9.0 | 15.0 | 0.00 | 0.00 | 0.00 | 80 | 1007.3 |
| 20260505050704 | 72 | 181 | 9.0 | 15.0 | 0.00 | 0.00 | 0.00 | 80 | 1007.3 |
| 20260505050504 | 72 | 179 | 9.0 | 15.0 | 0.00 | 0.00 | 0.00 | 80 | 1007.3 |
| 20260505050404 | 72 | 179 | 9.0 | 15.0 | 0.00 | 0.00 | 0.00 | 80 | 1007.3 |
| 20260505050303 | 72 | 177 | 10.0 | 15.0 | 0.00 | 0.00 | 0.00 | 80 | 1007.4 |
| 20260505050204 | 72 | 177 | 9.0 | 15.0 | 0.00 | 0.00 | 0.00 | 80 | 1007.3 |
| 20260505050104 | 72 | 176 | 9.0 | 15.0 | 0.00 | 0.00 | 0.00 | 80 | 1007.2 |
| 20260505041704 | 73 | 173 | 8.0 | 15.0 | 0.00 | 0.00 | 0.00 | 78 | 1007.3 |
| 20260505041503 | 73 | 172 | 8.0 | 15.0 | 0.00 | 0.00 | 0.00 | 77 | 1007.2 |
| 20260505041404 | 73 | 173 | 8.0 | 15.0 | 0.00 | 0.00 | 0.00 | 77 | 1007.3 |
| 20260505041304 | 73 | 173 | 8.0 | 15.0 | 0.00 | 0.00 | 0.00 | 77 | 1007.2 |
| 20260505041204 | 73 | 174 | 8.0 | 15.0 | 0.00 | 0.00 | 0.00 | 77 | 1007.2 |
| 20260505041104 | 73 | 175 | 8.0 | 15.0 | 0.00 | 0.00 | 0.00 | 77 | 1007.2 |
| 20260505040904 | 73 | 176 | 8.0 | 13.0 | 0.00 | 0.00 | 0.00 | 77 | 1007.2 |
| 20260505040803 | 73 | 175 | 8.0 | 13.0 | 0.00 | 0.00 | 0.00 | 77 | 1007.3 |
| 20260505040704 | 73 | 174 | 8.0 | 12.0 | 0.00 | 0.00 | 0.00 | 77 | 1007.3 |
| 20260505040404 | 73 | 174 | 8.0 | 12.0 | 0.00 | 0.00 | 0.00 | 76 | 1007.4 |
| 20260505040303 | 73 | 173 | 8.0 | 13.0 | 0.00 | 0.00 | 0.00 | 76 | 1007.4 |
| 20260505040204 | 73 | 172 | 8.0 | 13.0 | 0.00 | 0.00 | 0.00 | 76 | 1007.5 |
| 20260505040104 | 73 | 172 | 8.0 | 13.0 | 0.00 | 0.00 | 0.00 | 76 | 1007.4 |
| 20260505035903 | 73 | 171 | 8.0 | 14.0 | 0.00 | 0.00 | 0.00 | 76 | 1007.3 |
| 20260505035703 | 73 | 172 | 7.0 | 14.0 | 0.00 | 0.00 | 0.00 | 76 | 1007.4 |
| 20260505035604 | 73 | 172 | 7.0 | 14.0 | 0.00 | 0.00 | 0.00 | 76 | 1007.4 |
| 20260505035503 | 73 | 172 | 7.0 | 14.0 | 0.00 | 0.00 | 0.00 | 76 | 1007.4 |
| 20260505035204 | 73 | 171 | 6.0 | 14.0 | 0.00 | 0.00 | 0.00 | 75 | 1007.4 |
| 20260505035104 | 73 | 170 | 6.0 | 14.0 | 0.00 | 0.00 | 0.00 | 75 | 1007.4 |
| 20260505035004 | 73 | 169 | 6.0 | 13.0 | 0.00 | 0.00 | 0.00 | 75 | 1007.4 |
| 20260505034904 | 73 | 168 | 6.0 | 13.0 | 0.00 | 0.00 | 0.00 | 75 | 1007.4 |
| 20260505034804 | 73 | 165 | 6.0 | 13.0 | 0.00 | 0.00 | 0.00 | 75 | 1007.4 |
| 20260505034704 | 73 | 164 | 6.0 | 13.0 | 0.00 | 0.00 | 0.00 | 75 | 1007.4 |
| 20260505034604 | 73 | 164 | 6.0 | 13.0 | 0.00 | 0.00 | 0.00 | 75 | 1007.5 |
| 20260505034503 | 73 | 163 | 6.0 | 10.0 | 0.00 | 0.00 | 0.00 | 75 | 1007.4 |
| 20260505034404 | 73 | 162 | 5.0 | 10.0 | 0.00 | 0.00 | 0.00 | 75 | 1007.5 |
| 20260505034103 | 73 | 156 | 4.0 | 10.0 | 0.00 | 0.00 | 0.00 | 74 | 1007.5 |
| 20260505034004 | 73 | 156 | 4.0 | 10.0 | 0.00 | 0.00 | 0.00 | 74 | 1007.4 |
| 20260505033903 | 73 | 156 | 4.0 | 10.0 | 0.00 | 0.00 | 0.00 | 74 | 1007.4 |
| 20260505033804 | 73 | 157 | 4.0 | 10.0 | 0.00 | 0.00 | 0.00 | 74 | 1007.3 |
| 20260505033603 | 73 | 157 | 4.0 | 8.0 | 0.00 | 0.00 | 0.00 | 74 | 1007.4 |
| 20260505033504 | 73 | 157 | 4.0 | 8.0 | 0.00 | 0.00 | 0.00 | 74 | 1007.4 |
| 20260505033403 | 73 | 156 | 4.0 | 8.0 | 0.00 | 0.00 | 0.00 | 73 | 1007.4 |
| 20260505033304 | 73 | 156 | 4.0 | 9.0 | 0.00 | 0.00 | 0.00 | 73 | 1007.4 |
| 20260505033203 | 73 | 156 | 4.0 | 9.0 | 0.00 | 0.00 | 0.00 | 73 | 1007.4 |
| 20260505033104 | 73 | 155 | 5.0 | 9.0 | 0.00 | 0.00 | 0.00 | 73 | 1007.4 |
| 20260505033003 | 73 | 156 | 5.0 | 9.0 | 0.00 | 0.00 | 0.00 | 73 | 1007.5 |
| 20260505032904 | 73 | 158 | 5.0 | 9.0 | 0.00 | 0.00 | 0.00 | 73 | 1007.5 |
| 20260505032703 | 74 | 160 | 5.0 | 9.0 | 0.00 | 0.00 | 0.00 | 72 | 1007.5 |
| 20260505032604 | 74 | 161 | 6.0 | 9.0 | 0.00 | 0.00 | 0.00 | 72 | 1007.6 |
| 20260505032504 | 74 | 163 | 6.0 | 9.0 | 0.00 | 0.00 | 0.00 | 72 | 1007.5 |
| 20260505032405 | 74 | 163 | 6.0 | 10.0 | 0.00 | 0.00 | 0.00 | 72 | 1007.6 |
| 20260505032304 | 74 | 165 | 6.0 | 10.0 | 0.00 | 0.00 | 0.00 | 72 | 1007.6 |
| 20260505032104 | 74 | 169 | 7.0 | 12.0 | 0.00 | 0.00 | 0.00 | 72 | 1007.5 |
| 20260505032003 | 74 | 171 | 7.0 | 12.0 | 0.00 | 0.00 | 0.00 | 72 | 1007.5 |
| 20260505031904 | 74 | 172 | 7.0 | 12.0 | 0.00 | 0.00 | 0.00 | 72 | 1007.5 |
| 20260505031804 | 74 | 172 | 7.0 | 12.0 | 0.00 | 0.00 | 0.00 | 71 | 1007.5 |
| 20260505031704 | 74 | 173 | 8.0 | 12.0 | 0.00 | 0.00 | 0.00 | 71 | 1007.5 |
| 20260505031603 | 74 | 174 | 8.0 | 12.0 | 0.00 | 0.00 | 0.00 | 71 | 1007.5 |
| 20260505031504 | 74 | 172 | 8.0 | 14.0 | 0.00 | 0.00 | 0.00 | 71 | 1007.5 |
| 20260505031403 | 74 | 171 | 8.0 | 14.0 | 0.00 | 0.00 | 0.00 | 71 | 1007.4 |
| 20260505031304 | 74 | 171 | 8.0 | 14.0 | 0.00 | 0.00 | 0.00 | 71 | 1007.4 |
| 20260505031203 | 74 | 172 | 8.0 | 14.0 | 0.00 | 0.00 | 0.00 | 71 | 1007.4 |
| 20260505031104 | 74 | 172 | 8.0 | 14.0 | 0.00 | 0.00 | 0.00 | 71 | 1007.5 |
| 20260505031003 | 74 | 171 | 8.0 | 14.0 | 0.00 | 0.00 | 0.00 | 71 | 1007.4 |
| 20260505030904 | 74 | 171 | 8.0 | 14.0 | 0.00 | 0.00 | 0.00 | 71 | 1007.4 |
| 20260505030803 | 74 | 171 | 8.0 | 14.0 | 0.00 | 0.00 | 0.00 | 71 | 1007.4 |
| 20260505030704 | 74 | 170 | 8.0 | 14.0 | 0.00 | 0.00 | 0.00 | 71 | 1007.4 |
| 20260505030603 | 74 | 170 | 7.0 | 14.0 | 0.00 | 0.00 | 0.00 | 71 | 1007.4 |
| 20260505030504 | 74 | 171 | 7.0 | 14.0 | 0.00 | 0.00 | 0.00 | 71 | 1007.4 |
| 20260505030404 | 74 | 173 | 7.0 | 11.0 | 0.00 | 0.00 | 0.00 | 71 | 1007.4 |
| 20260505030304 | 74 | 173 | 7.0 | 11.0 | 0.00 | 0.00 | 0.00 | 71 | 1007.4 |
| 20260505030203 | 74 | 173 | 7.0 | 11.0 | 0.00 | 0.00 | 0.00 | 71 | 1007.4 |
| 20260505030104 | 74 | 173 | 7.0 | 11.0 | 0.00 | 0.00 | 0.00 | 71 | 1007.5 |
| 20260505030004 | 74 | 172 | 6.0 | 11.0 | 0.00 | 0.00 | 0.00 | 70 | 1007.3 |
| 20260505025904 | 74 | 172 | 7.0 | 11.0 | 0.00 | 0.00 | 0.00 | 70 | 1007.3 |
| 20260505025803 | 74 | 173 | 7.0 | 13.0 | 0.00 | 0.00 | 0.00 | 70 | 1007.3 |
| 20260505025704 | 74 | 173 | 7.0 | 13.0 | 0.00 | 0.00 | 0.00 | 70 | 1007.3 |
| 20260505025604 | 74 | 173 | 7.0 | 13.0 | 0.00 | 0.00 | 0.00 | 70 | 1007.3 |
| 20260505025503 | 74 | 174 | 7.0 | 13.0 | 0.00 | 0.00 | 0.00 | 70 | 1007.3 |
| 20260505025404 | 74 | 173 | 7.0 | 13.0 | 0.00 | 0.00 | 0.00 | 70 | 1007.2 |
| 20260505025104 | 74 | 173 | 8.0 | 14.0 | 0.00 | 0.00 | 0.00 | 69 | 1007.1 |
| 20260505025004 | 74 | 174 | 8.0 | 14.0 | 0.00 | 0.00 | 0.00 | 69 | 1007.1 |
| 20260505024804 | 74 | 175 | 8.0 | 14.0 | 0.00 | 0.00 | 0.00 | 69 | 1007.1 |
| 20260505024703 | 74 | 174 | 8.0 | 14.0 | 0.00 | 0.00 | 0.00 | 69 | 1007.1 |
| 20260505024504 | 75 | 174 | 8.0 | 14.0 | 0.00 | 0.00 | 0.00 | 69 | 1007.2 |
| 20260505024304 | 75 | 175 | 7.0 | 14.0 | 0.00 | 0.00 | 0.00 | 69 | 1007.2 |
| 20260505024203 | 75 | 174 | 7.0 | 13.0 | 0.00 | 0.00 | 0.00 | 69 | 1007.3 |
| 20260505024104 | 75 | 174 | 7.0 | 13.0 | 0.00 | 0.00 | 0.00 | 69 | 1007.3 |
| 20260505024003 | 75 | 173 | 7.0 | 13.0 | 0.00 | 0.00 | 0.00 | 69 | 1007.3 |
| 20260505023904 | 75 | 175 | 8.0 | 13.0 | 0.00 | 0.00 | 0.00 | 68 | 1007.2 |
| 20260505023803 | 75 | 173 | 8.0 | 12.0 | 0.00 | 0.00 | 0.00 | 68 | 1007.2 |
| 20260505023704 | 75 | 174 | 8.0 | 12.0 | 0.00 | 0.00 | 0.00 | 68 | 1007.2 |
| 20260505023603 | 75 | 174 | 8.0 | 12.0 | 0.00 | 0.00 | 0.00 | 68 | 1007.2 |
| 20260505023303 | 75 | 173 | 8.0 | 12.0 | 0.00 | 0.00 | 0.00 | 68 | 1007.1 |
| 20260505023204 | 75 | 173 | 8.0 | 12.0 | 0.00 | 0.00 | 0.00 | 68 | 1007.1 |
| 20260505023105 | 75 | 173 | 8.0 | 12.0 | 0.00 | 0.00 | 0.00 | 67 | 1007.0 |
| 20260505023006 | 75 | 173 | 8.0 | 12.0 | 0.00 | 0.00 | 0.00 | 67 | 1007.0 |
| 20260505022905 | 75 | 171 | 8.0 | 12.0 | 0.00 | 0.00 | 0.00 | 67 | 1007.0 |
| 20260505022806 | 75 | 172 | 8.0 | 11.0 | 0.00 | 0.00 | 0.00 | 67 | 1007.0 |
| 20260505022705 | 75 | 173 | 8.0 | 11.0 | 0.00 | 0.00 | 0.00 | 67 | 1006.9 |
| 20260505022605 | 75 | 174 | 8.0 | 13.0 | 0.00 | 0.00 | 0.00 | 67 | 1006.9 |
| 20260505022505 | 75 | 175 | 8.0 | 13.0 | 0.00 | 0.00 | 0.00 | 67 | 1006.9 |
| 20260505022406 | 75 | 176 | 8.0 | 13.0 | 0.00 | 0.00 | 0.00 | 67 | 1006.9 |
| 20260505022206 | 75 | 176 | 8.0 | 13.0 | 0.00 | 0.00 | 0.00 | 67 | 1007.0 |
| 20260505022105 | 75 | 178 | 8.0 | 13.0 | 0.00 | 0.00 | 0.00 | 67 | 1007.0 |
| 20260505022006 | 75 | 181 | 8.0 | 13.0 | 0.00 | 0.00 | 0.00 | 67 | 1007.0 |
| 20260505021905 | 75 | 184 | 8.0 | 15.0 | 0.00 | 0.00 | 0.00 | 66 | 1007.0 |
| 20260505021807 | 75 | 186 | 8.0 | 15.0 | 0.00 | 0.00 | 0.00 | 66 | 1007.0 |
| 20260505021706 | 76 | 184 | 8.0 | 15.0 | 0.00 | 0.00 | 0.00 | 66 | 1007.0 |
| 20260505021506 | 76 | 185 | 7.0 | 15.0 | 0.00 | 0.00 | 0.00 | 66 | 1007.1 |
| 20260505021406 | 76 | 187 | 7.0 | 15.0 | 0.00 | 0.00 | 0.00 | 66 | 1007.1 |
| 20260505021305 | 76 | 187 | 7.0 | 15.0 | 0.00 | 0.00 | 0.00 | 66 | 1007.1 |
| 20260505021206 | 76 | 188 | 8.0 | 15.0 | 0.00 | 0.00 | 0.00 | 66 | 1007.1 |
| 20260505021105 | 76 | 186 | 8.0 | 15.0 | 0.00 | 0.00 | 0.00 | 66 | 1007.1 |
| 20260505021006 | 76 | 187 | 8.0 | 15.0 | 0.00 | 0.00 | 0.00 | 66 | 1007.0 |
| 20260505020905 | 76 | 186 | 8.0 | 15.0 | 0.00 | 0.00 | 0.00 | 66 | 1007.0 |
| 20260505020806 | 76 | 185 | 7.0 | 15.0 | 0.00 | 0.00 | 0.00 | 66 | 1007.0 |
| 20260505020705 | 76 | 188 | 8.0 | 13.0 | 0.00 | 0.00 | 0.00 | 66 | 1007.0 |
| 20260505020606 | 76 | 185 | 8.0 | 13.0 | 0.00 | 0.00 | 0.00 | 66 | 1006.9 |
| 20260505020505 | 76 | 186 | 8.0 | 13.0 | 0.00 | 0.00 | 0.00 | 66 | 1007.0 |
| 20260505020406 | 76 | 183 | 7.0 | 13.0 | 0.00 | 0.00 | 0.00 | 66 | 1006.9 |
| 20260505020306 | 76 | 182 | 7.0 | 13.0 | 0.00 | 0.00 | 0.00 | 66 | 1006.9 |
| 20260505020205 | 76 | 184 | 7.0 | 13.0 | 0.00 | 0.00 | 0.00 | 66 | 1006.9 |
| 20260505020106 | 76 | 185 | 7.0 | 13.0 | 0.00 | 0.00 | 0.00 | 66 | 1006.9 |
| 20260505020006 | 76 | 184 | 7.0 | 13.0 | 0.00 | 0.00 | 0.00 | 66 | 1006.8 |
| 20260505015906 | 76 | 183 | 7.0 | 13.0 | 0.00 | 0.00 | 0.00 | 66 | 1006.8 |
| 20260505015805 | 76 | 183 | 7.0 | 13.0 | 0.00 | 0.00 | 0.00 | 66 | 1006.8 |
| 20260505015706 | 76 | 182 | 7.0 | 13.0 | 0.00 | 0.00 | 0.00 | 66 | 1006.8 |
| 20260505015605 | 76 | 183 | 7.0 | 13.0 | 0.00 | 0.00 | 0.00 | 66 | 1006.8 |
| 20260505015506 | 76 | 182 | 7.0 | 13.0 | 0.00 | 0.00 | 0.00 | 66 | 1006.8 |
| 20260505015405 | 76 | 183 | 7.0 | 13.0 | 0.00 | 0.00 | 0.00 | 66 | 1006.8 |
| 20260505015306 | 76 | 184 | 7.0 | 13.0 | 0.00 | 0.00 | 0.00 | 66 | 1006.8 |
| 20260505015206 | 76 | 183 | 7.0 | 13.0 | 0.00 | 0.00 | 0.00 | 66 | 1006.8 |
| 20260505015105 | 76 | 181 | 7.0 | 13.0 | 0.00 | 0.00 | 0.00 | 66 | 1006.8 |
| 20260505014905 | 76 | 179 | 7.0 | 13.0 | 0.00 | 0.00 | 0.00 | 66 | 1006.8 |
| 20260505014806 | 76 | 178 | 7.0 | 11.0 | 0.00 | 0.00 | 0.00 | 66 | 1006.9 |
| 20260505014406 | 76 | 178 | 8.0 | 15.0 | 0.00 | 0.00 | 0.00 | 65 | 1006.8 |
| 20260505014307 | 76 | 178 | 8.0 | 15.0 | 0.00 | 0.00 | 0.00 | 65 | 1006.8 |
| 20260505014105 | 76 | 179 | 8.0 | 15.0 | 0.00 | 0.00 | 0.00 | 65 | 1006.8 |
| 20260505014006 | 76 | 179 | 8.0 | 15.0 | 0.00 | 0.00 | 0.00 | 65 | 1006.8 |
| 20260505013905 | 76 | 179 | 8.0 | 15.0 | 0.00 | 0.00 | 0.00 | 65 | 1006.8 |
| 20260505013805 | 76 | 179 | 8.0 | 15.0 | 0.00 | 0.00 | 0.00 | 65 | 1006.8 |
| 20260505013706 | 76 | 179 | 8.0 | 15.0 | 0.00 | 0.00 | 0.00 | 65 | 1006.9 |
| 20260505013605 | 76 | 178 | 7.0 | 15.0 | 0.00 | 0.00 | 0.00 | 65 | 1006.9 |
| 20260505013406 | 76 | 179 | 7.0 | 14.0 | 0.00 | 0.00 | 0.00 | 65 | 1006.9 |
| 20260505013305 | 76 | 178 | 7.0 | 14.0 | 0.00 | 0.00 | 0.00 | 65 | 1007.0 |
| 20260505013106 | 76 | 177 | 7.0 | 12.0 | 0.00 | 0.00 | 0.00 | 65 | 1007.0 |
| 20260505013006 | 76 | 177 | 7.0 | 12.0 | 0.00 | 0.00 | 0.00 | 66 | 1007.0 |
| 20260505012905 | 76 | 177 | 7.0 | 12.0 | 0.00 | 0.00 | 0.00 | 65 | 1007.0 |
| 20260505012806 | 76 | 177 | 7.0 | 12.0 | 0.00 | 0.00 | 0.00 | 65 | 1006.9 |
| 20260505012705 | 76 | 177 | 6.0 | 12.0 | 0.00 | 0.00 | 0.00 | 65 | 1006.9 |
| 20260505012606 | 76 | 177 | 6.0 | 11.0 | 0.00 | 0.00 | 0.00 | 65 | 1006.9 |
| 20260505012505 | 76 | 178 | 6.0 | 11.0 | 0.00 | 0.00 | 0.00 | 65 | 1006.9 |
| 20260505012406 | 76 | 178 | 6.0 | 11.0 | 0.00 | 0.00 | 0.00 | 65 | 1006.9 |
| 20260505012305 | 76 | 179 | 6.0 | 11.0 | 0.00 | 0.00 | 0.00 | 65 | 1006.9 |
| 20260505012207 | 76 | 182 | 6.0 | 11.0 | 0.00 | 0.00 | 0.00 | 65 | 1006.9 |
| 20260505012106 | 76 | 182 | 6.0 | 12.0 | 0.00 | 0.00 | 0.00 | 64 | 1006.8 |
| 20260505012005 | 77 | 183 | 6.0 | 12.0 | 0.00 | 0.00 | 0.00 | 64 | 1006.9 |
| 20260505011906 | 77 | 184 | 6.0 | 12.0 | 0.00 | 0.00 | 0.00 | 64 | 1006.9 |
| 20260505011705 | 77 | 187 | 7.0 | 12.0 | 0.00 | 0.00 | 0.00 | 64 | 1006.8 |
| 20260505011605 | 77 | 188 | 7.0 | 12.0 | 0.00 | 0.00 | 0.00 | 64 | 1006.8 |
| 20260505011506 | 77 | 188 | 8.0 | 14.0 | 0.00 | 0.00 | 0.00 | 64 | 1006.8 |
| 20260505011405 | 77 | 187 | 8.0 | 14.0 | 0.00 | 0.00 | 0.00 | 63 | 1006.8 |
| 20260505011305 | 77 | 187 | 8.0 | 14.0 | 0.00 | 0.00 | 0.00 | 63 | 1006.8 |
| 20260505011206 | 77 | 188 | 8.0 | 14.0 | 0.00 | 0.00 | 0.00 | 63 | 1006.9 |
| 20260505011106 | 77 | 189 | 8.0 | 14.0 | 0.00 | 0.00 | 0.00 | 63 | 1006.9 |
| 20260505011005 | 77 | 189 | 8.0 | 14.0 | 0.00 | 0.00 | 0.00 | 63 | 1006.9 |
| 20260505010906 | 77 | 189 | 8.0 | 14.0 | 0.00 | 0.00 | 0.00 | 63 | 1006.9 |
| 20260505010805 | 77 | 190 | 8.0 | 14.0 | 0.00 | 0.00 | 0.00 | 63 | 1006.9 |
| 20260505010705 | 77 | 189 | 8.0 | 14.0 | 0.00 | 0.00 | 0.00 | 63 | 1006.9 |
| 20260505010605 | 77 | 189 | 8.0 | 14.0 | 0.00 | 0.00 | 0.00 | 63 | 1006.9 |
| 20260505010406 | 78 | 190 | 8.0 | 13.0 | 0.00 | 0.00 | 0.00 | 63 | 1006.9 |
| 20260505010305 | 78 | 190 | 8.0 | 13.0 | 0.00 | 0.00 | 0.00 | 62 | 1006.9 |
| 20260505010105 | 78 | 188 | 8.0 | 15.0 | 0.00 | 0.00 | 0.00 | 62 | 1007.0 |
| 20260505005905 | 78 | 187 | 9.0 | 16.0 | 0.00 | 0.00 | 0.00 | 62 | 1007.0 |
| 20260505005805 | 78 | 186 | 9.0 | 16.0 | 0.00 | 0.00 | 0.00 | 62 | 1007.0 |
| 20260505005706 | 78 | 186 | 8.0 | 16.0 | 0.00 | 0.00 | 0.00 | 62 | 1007.0 |
| 20260505005606 | 78 | 187 | 9.0 | 16.0 | 0.00 | 0.00 | 0.00 | 62 | 1007.0 |
| 20260505005506 | 78 | 188 | 9.0 | 16.0 | 0.00 | 0.00 | 0.00 | 62 | 1007.0 |
| 20260505005406 | 78 | 188 | 9.0 | 16.0 | 0.00 | 0.00 | 0.00 | 62 | 1007.0 |
| 20260505005305 | 78 | 189 | 9.0 | 16.0 | 0.00 | 0.00 | 0.00 | 61 | 1007.0 |
| 20260505005206 | 78 | 190 | 9.0 | 16.0 | 0.00 | 0.00 | 0.00 | 61 | 1007.0 |
| 20260505005105 | 78 | 191 | 9.0 | 16.0 | 0.00 | 0.00 | 0.00 | 61 | 1007.0 |
| 20260505005006 | 78 | 191 | 9.0 | 16.0 | 0.00 | 0.00 | 0.00 | 61 | 1007.1 |
| 20260505004905 | 78 | 192 | 9.0 | 16.0 | 0.00 | 0.00 | 0.00 | 61 | 1007.0 |
| 20260505004805 | 78 | 192 | 9.0 | 18.0 | 0.00 | 0.00 | 0.00 | 61 | 1007.1 |
| 20260505004605 | 78 | 189 | 9.0 | 18.0 | 0.00 | 0.00 | 0.00 | 61 | 1007.1 |
| 20260505004206 | 79 | 183 | 10.0 | 18.0 | 0.00 | 0.00 | 0.00 | 61 | 1007.1 |
| 20260505004105 | 79 | 183 | 10.0 | 18.0 | 0.00 | 0.00 | 0.00 | 60 | 1007.0 |
| 20260505004006 | 79 | 183 | 10.0 | 18.0 | 0.00 | 0.00 | 0.00 | 60 | 1007.0 |
| 20260505003806 | 79 | 182 | 9.0 | 17.0 | 0.00 | 0.00 | 0.00 | 61 | 1006.9 |
| 20260505003705 | 79 | 185 | 10.0 | 16.0 | 0.00 | 0.00 | 0.00 | 60 | 1006.9 |
| 20260505003605 | 79 | 185 | 10.0 | 16.0 | 0.00 | 0.00 | 0.00 | 60 | 1006.9 |
| 20260505003405 | 79 | 187 | 10.0 | 16.0 | 0.00 | 0.00 | 0.00 | 60 | 1006.9 |
| 20260505003306 | 79 | 186 | 10.0 | 16.0 | 0.00 | 0.00 | 0.00 | 60 | 1006.9 |
| 20260505003105 | 79 | 188 | 10.0 | 16.0 | 0.00 | 0.00 | 0.00 | 60 | 1006.9 |
| 20260505003006 | 79 | 188 | 10.0 | 16.0 | 0.00 | 0.00 | 0.00 | 60 | 1006.9 |
| 20260505002905 | 79 | 188 | 10.0 | 16.0 | 0.00 | 0.00 | 0.00 | 60 | 1007.0 |
| 20260505002806 | 79 | 188 | 10.0 | 16.0 | 0.00 | 0.00 | 0.00 | 60 | 1007.0 |
| 20260505002705 | 79 | 186 | 10.0 | 16.0 | 0.00 | 0.00 | 0.00 | 60 | 1007.0 |
| 20260505002606 | 79 | 187 | 10.0 | 16.0 | 0.00 | 0.00 | 0.00 | 59 | 1007.0 |
| 20260505002505 | 79 | 189 | 10.0 | 16.0 | 0.00 | 0.00 | 0.00 | 59 | 1007.0 |
| 20260505002406 | 79 | 188 | 9.0 | 16.0 | 0.00 | 0.00 | 0.00 | 59 | 1007.1 |
| 20260505002206 | 79 | 190 | 9.0 | 16.0 | 0.00 | 0.00 | 0.00 | 59 | 1007.0 |
| 20260505002105 | 80 | 190 | 9.0 | 16.0 | 0.00 | 0.00 | 0.00 | 59 | 1007.0 |
| 20260505002006 | 80 | 191 | 8.0 | 16.0 | 0.00 | 0.00 | 0.00 | 59 | 1007.0 |
| 20260505001905 | 80 | 192 | 8.0 | 16.0 | 0.00 | 0.00 | 0.00 | 59 | 1006.9 |
| 20260505001805 | 80 | 192 | 8.0 | 16.0 | 0.00 | 0.00 | 0.00 | 59 | 1006.9 |
| 20260505001705 | 80 | 194 | 9.0 | 16.0 | 0.00 | 0.00 | 0.00 | 59 | 1007.0 |
| 20260505001606 | 80 | 195 | 9.0 | 16.0 | 0.00 | 0.00 | 0.00 | 59 | 1006.9 |
| 20260505001505 | 80 | 193 | 9.0 | 16.0 | 0.00 | 0.00 | 0.00 | 59 | 1006.9 |
| 20260505001406 | 80 | 192 | 9.0 | 16.0 | 0.00 | 0.00 | 0.00 | 59 | 1006.9 |
| 20260505001305 | 80 | 192 | 9.0 | 16.0 | 0.00 | 0.00 | 0.00 | 59 | 1006.9 |
| 20260505001206 | 80 | 192 | 9.0 | 16.0 | 0.00 | 0.00 | 0.00 | 59 | 1006.9 |
| 20260505001105 | 80 | 192 | 9.0 | 16.0 | 0.00 | 0.00 | 0.00 | 58 | 1006.8 |
| 20260505001006 | 80 | 191 | 9.0 | 16.0 | 0.00 | 0.00 | 0.00 | 58 | 1006.8 |
| 20260505000905 | 80 | 191 | 10.0 | 16.0 | 0.00 | 0.00 | 0.00 | 58 | 1006.8 |
| 20260505000805 | 80 | 190 | 10.0 | 16.0 | 0.00 | 0.00 | 0.00 | 58 | 1006.8 |
| 20260505000705 | 81 | 190 | 10.0 | 19.0 | 0.00 | 0.00 | 0.00 | 58 | 1006.8 |
| 20260505000605 | 81 | 189 | 10.0 | 19.0 | 0.00 | 0.00 | 0.00 | 58 | 1006.8 |
| 20260505000406 | 81 | 190 | 10.0 | 19.0 | 0.00 | 0.00 | 0.00 | 58 | 1006.8 |
| 20260505000305 | 81 | 189 | 10.0 | 19.0 | 0.00 | 0.00 | 0.00 | 58 | 1006.8 |
| 20260505000205 | 81 | 188 | 10.0 | 19.0 | 0.00 | 0.00 | 0.00 | 57 | 1006.8 |
| 20260505000105 | 81 | 188 | 10.0 | 19.0 | 0.00 | 0.00 | 0.00 | 57 | 1006.8 |
| 20260504235806 | 81 | 190 | 10.0 | 19.0 | 0.00 | 0.00 | 0.00 | 57 | 1006.9 |
| 20260504235705 | 81 | 188 | 10.0 | 17.0 | 0.00 | 0.00 | 0.00 | 57 | 1006.9 |
| 20260504235606 | 82 | 185 | 10.0 | 17.0 | 0.00 | 0.00 | 0.00 | 57 | 1007.0 |
| 20260504235505 | 82 | 183 | 10.0 | 19.0 | 0.00 | 0.00 | 0.00 | 57 | 1007.0 |
| 20260504235405 | 82 | 182 | 11.0 | 19.0 | 0.00 | 0.00 | 0.00 | 57 | 1006.9 |
| 20260504235305 | 82 | 181 | 12.0 | 20.0 | 0.00 | 0.00 | 0.00 | 57 | 1007.0 |
| 20260504235205 | 82 | 178 | 12.0 | 20.0 | 0.00 | 0.00 | 0.00 | 56 | 1007.0 |